EW4266 Weather Reports


time (UTC)temp
F
wind
direction
speed
knots
gust
knots
rain 1hr
in
rain 24hr
in
rain mn
in
humidity
%
barometer
mb
20260905154824 68 285 3.5 10.4 0.00 0.00 0.00 82 1012.7
20260905154628 68 355 4.3 10.4 0.00 0.00 0.00 81 1012.7
20260905154532 68 344 6.1 10.4 0.00 0.00 0.00 81 1012.7
20260905154436 68 340 7.0 10.4 0.00 0.00 0.00 80 1012.7
20260905154347 68 338 6.1 10.4 0.00 0.00 0.00 80 1012.8
20260905154308 68 337 6.1 10.4 0.00 0.00 0.00 80 1012.8
20260905154151 68 310 6.1 11.3 0.00 0.00 0.00 80 1012.7
20260905154111 68 327 5.2 11.3 0.00 0.00 0.00 80 1012.8
20260905153941 68 317 6.1 11.3 0.00 0.00 0.00 79 1012.8
20260905153832 68 341 7.0 11.3 0.00 0.00 0.00 79 1012.8
20260905153703 69 284 7.0 11.3 0.00 0.00 0.00 79 1012.7
20260905153624 69 342 7.0 11.3 0.00 0.00 0.00 79 1012.7
20260905153427 69 344 7.0 11.3 0.00 0.00 0.00 78 1012.7
20260905153332 69 331 5.2 11.3 0.00 0.00 0.00 78 1012.6
20260905153245 69 337 4.3 10.4 0.00 0.00 0.00 77 1012.6
20260905153145 69 340 6.1 10.4 0.00 0.00 0.00 78 1012.7
20260905153105 69 355 5.2 10.4 0.00 0.00 0.00 78 1012.7
20260905153012 69 342 4.3 10.4 0.00 0.00 0.00 78 1012.7
20260905152942 69 341 3.5 9.6 0.00 0.00 0.00 78 1012.6
20260905152812 69 339 5.2 11.3 0.00 0.00 0.00 76 1012.6
20260905152728 69 340 6.1 11.3 0.00 0.00 0.00 75 1012.6
20260905152557 70 331 5.2 11.3 0.00 0.00 0.00 76 1012.6
20260905152518 70 340 4.3 11.3 0.00 0.00 0.00 76 1012.6
20260905152341 70 355 5.2 11.3 0.00 0.00 0.00 77 1012.6
20260905152247 70 293 5.2 11.3 0.00 0.00 0.00 76 1012.6
20260905152131 70 328 7.8 11.3 0.00 0.00 0.00 77 1012.6
20260905152052 70 329 7.8 11.3 0.00 0.00 0.00 76 1012.6
20260905151924 69 346 5.2 10.4 0.00 0.00 0.00 77 1012.6
20260905151846 69 343 5.2 10.4 0.00 0.00 0.00 75 1012.6
20260905151746 69 277 5.2 10.4 0.00 0.00 0.00 76 1012.6
20260905151649 69 311 7.0 10.4 0.00 0.00 0.00 78 1012.6
20260905151549 69 336 7.0 10.4 0.00 0.00 0.00 77 1012.6
20260905151510 69 319 6.1 10.4 0.00 0.00 0.00 78 1012.6
20260905151416 69 9 6.1 10.4 0.00 0.00 0.00 78 1012.6
20260905151337 69 348 6.1 10.4 0.00 0.00 0.00 80 1012.6
20260905151213 69 343 4.3 7.8 0.00 0.00 0.00 80 1012.6
20260905151127 69 316 3.5 9.6 0.00 0.00 0.00 80 1012.6
20260905150936 68 338 4.3 9.6 0.00 0.00 0.00 79 1012.6
20260905150850 68 336 5.2 9.6 0.00 0.00 0.00 79 1012.6
20260905150720 68 316 3.5 9.6 0.00 0.00 0.00 80 1012.7
20260905150620 68 12 3.5 9.6 0.00 0.00 0.00 80 1012.6
20260905150442 68 16 4.3 10.4 0.00 0.00 0.00 80 1012.6
20260905150405 68 345 5.2 10.4 0.00 0.00 0.00 80 1012.7
20260905150134 68 348 4.3 10.4 0.00 0.00 0.00 80 1012.6
20260905150027 68 355 5.2 10.4 0.00 0.00 0.00 79 1012.6
20260905145954 68 351 4.3 10.4 0.00 0.00 0.00 80 1012.6
20260905145857 68 355 4.3 10.4 0.00 0.00 0.00 79 1012.6
20260905145819 68 360 6.1 10.4 0.00 0.00 0.00 78 1012.6
20260905145625 68 340 7.0 10.4 0.00 0.00 0.00 79 1012.5
20260905145525 68 360 6.1 9.6 0.00 0.00 0.00 80 1012.6
20260905145429 68 355 5.2 9.6 0.00 0.00 0.00 80 1012.5
20260905145350 68 349 4.3 9.6 0.00 0.00 0.00 80 1012.5
20260905145313 68 355 5.2 9.6 0.00 0.00 0.00 80 1012.6
20260905145215 68 342 6.1 10.4 0.00 0.00 0.00 80 1012.6
20260905145136 68 313 6.1 10.4 0.00 0.00 0.00 80 1012.6
20260905145005 68 336 6.1 10.4 0.00 0.00 0.00 79 1012.5
20260905144912 68 336 5.2 10.4 0.00 0.00 0.00 79 1012.6
20260905144754 69 346 4.3 10.4 0.00 0.00 0.00 79 1012.5
20260905144635 69 355 5.2 10.4 0.00 0.00 0.00 78 1012.6
20260905144538 69 331 7.0 10.4 0.00 0.00 0.00 78 1012.6
20260905144438 69 324 7.0 10.4 0.00 0.00 0.00 79 1012.6
20260905144310 69 350 6.1 10.4 0.00 0.00 0.00 79 1012.6
20260905144223 69 300 6.1 10.4 0.00 0.00 0.00 78 1012.6
20260905144034 69 344 5.2 10.4 0.00 0.00 0.00 80 1012.6
20260905143949 69 355 6.1 10.4 0.00 0.00 0.00 78 1012.5
20260905143757 69 9 7.0 10.4 0.00 0.00 0.00 80 1012.6
20260905143720 69 342 5.2 10.4 0.00 0.00 0.00 80 1012.6
20260905143638 69 348 5.2 10.4 0.00 0.00 0.00 81 1012.6
20260905143507 69 330 6.1 10.4 0.00 0.00 0.00 81 1012.5
20260905143409 68 336 6.1 10.4 0.00 0.00 0.00 81 1012.5
20260905143332 68 335 6.1 10.4 0.00 0.00 0.00 80 1012.5
20260905143213 68 333 4.3 8.7 0.00 0.00 0.00 81 1012.5
20260905143135 68 339 4.3 7.8 0.00 0.00 0.00 81 1012.5
20260905143005 68 317 4.3 7.8 0.00 0.00 0.00 81 1012.5
20260905142919 68 323 4.3 7.8 0.00 0.00 0.00 83 1012.5
20260905142727 68 343 0.9 7.8 0.00 0.00 0.00 82 1012.5
20260905142623 68 355 0.0 0.0 0.00 0.00 0.00 83 1012.5
20260905142545 68 336 0.0 0.0 0.00 0.00 0.00 84 1012.5
20260905142432 68 320 0.0 0.0 0.00 0.00 0.00 83 1012.4
20260905142332 67 360 0.0 0.0 0.00 0.00 0.00 83 1012.5
20260905142134 67 332 0.0 0.0 0.00 0.00 0.00 82 1012.4
20260905142057 67 325 0.0 0.0 0.00 0.00 0.00 83 1012.5
20260905142001 67 350 0.0 0.0 0.00 0.00 0.00 84 1012.5
20260905141923 67 326 0.0 0.0 0.00 0.00 0.00 84 1012.5
20260905141726 67 318 0.0 0.0 0.00 0.00 0.00 84 1012.5
20260905141627 67 329 0.0 0.0 0.00 0.00 0.00 83 1012.5
20260905141531 67 311 0.0 0.0 0.00 0.00 0.00 83 1012.5
20260905141456 67 333 0.0 0.0 0.00 0.00 0.00 83 1012.5
20260905141329 67 351 0.0 0.0 0.00 0.00 0.00 85 1012.5
20260905141231 67 325 0.0 0.0 0.00 0.00 0.00 85 1012.5
20260905141155 67 333 0.0 0.0 0.00 0.00 0.00 85 1012.5
20260905141038 67 313 0.0 0.0 0.00 0.00 0.00 84 1012.5
20260905140932 67 325 0.0 0.0 0.00 0.00 0.00 84 1012.5
20260905140826 67 293 0.0 0.0 0.00 0.00 0.00 85 1012.5
20260905140730 67 341 0.0 0.0 0.00 0.00 0.00 85 1012.4
20260905140653 67 335 0.0 0.0 0.00 0.00 0.00 84 1012.4
20260905140557 67 332 0.0 0.0 0.00 0.00 0.00 84 1012.4
20260905140520 67 343 0.0 0.0 0.00 0.00 0.00 84 1012.4
20260905140324 67 342 0.0 0.0 0.00 0.00 0.00 83 1012.4
20260905140224 67 333 0.0 0.0 0.00 0.00 0.00 84 1012.4
20260905140127 67 360 0.0 0.0 0.00 0.00 0.00 84 1012.4
20260905140049 67 355 0.0 0.0 0.00 0.00 0.00 85 1012.5
20260905140012 67 345 0.0 0.0 0.00 0.00 0.00 84 1012.4
20260905135855 67 355 0.0 0.0 0.00 0.00 0.00 86 1012.4
20260905135817 67 330 0.0 0.0 0.00 0.00 0.00 86 1012.4
20260905135625 67 340 0.0 0.0 0.00 0.00 0.00 87 1012.4
20260905135546 67 348 0.0 0.0 0.00 0.00 0.00 87 1012.5
20260905135509 67 321 0.0 0.0 0.00 0.00 0.00 87 1012.5
20260905135349 66 355 0.0 0.0 0.00 0.00 0.00 87 1012.5
20260905135243 66 340 0.0 0.0 0.00 0.00 0.00 87 1012.5
20260905135204 66 355 0.0 0.0 0.00 0.00 0.00 87 1012.5
20260905135107 66 326 0.0 0.0 0.00 0.00 0.00 87 1012.5
20260905135029 66 339 0.0 0.0 0.00 0.00 0.00 87 1012.5
20260905134832 66 331 0.0 0.0 0.00 0.00 0.00 88 1012.5
20260905134737 66 342 0.0 0.0 0.00 0.00 0.00 87 1012.5
20260905134641 66 319 0.0 0.0 0.00 0.00 0.00 87 1012.5
20260905134604 66 338 0.0 0.0 0.00 0.00 0.00 88 1012.5
20260905134411 65 333 0.0 0.0 0.00 0.00 0.00 88 1012.4
20260905134305 65 331 0.0 0.0 0.00 0.00 0.00 87 1012.5
20260905134114 65 344 0.0 0.0 0.00 0.00 0.00 87 1012.5
20260905134014 65 322 0.0 0.0 0.00 0.00 0.00 87 1012.5
20260905133846 65 346 0.0 0.0 0.00 0.00 0.00 87 1012.5
20260905133739 66 315 0.0 0.0 0.00 0.00 0.00 87 1012.5
20260905133622 66 338 0.0 0.0 0.00 0.00 0.00 88 1012.4
20260905133544 65 317 0.0 0.0 0.00 0.00 0.00 88 1012.5
20260905133509 65 330 0.0 0.0 0.00 0.00 0.00 88 1012.5
20260905133352 65 346 0.0 0.0 0.00 0.00 0.00 88 1012.5
20260905133253 65 343 0.0 0.0 0.00 0.00 0.00 89 1012.5
20260905133123 65 303 0.0 0.0 0.00 0.00 0.00 88 1012.4
20260905133015 65 343 0.0 0.0 0.00 0.00 0.00 88 1012.4
20260905132826 65 342 0.0 0.0 0.00 0.00 0.00 88 1012.4
20260905132742 65 5 0.0 0.0 0.00 0.00 0.00 89 1012.4
20260905132611 65 321 0.0 0.0 0.00 0.00 0.00 89 1012.3
20260905132531 65 355 0.0 0.0 0.00 0.00 0.00 89 1012.3
20260905132402 65 346 0.0 0.0 0.00 0.00 0.00 89 1012.3
20260905132234 65 334 0.0 0.0 0.00 0.00 0.00 89 1012.3
20260905132123 65 315 0.0 0.0 0.00 0.00 0.00 89 1012.3
20260905132044 65 346 0.0 0.0 0.00 0.00 0.00 89 1012.3
20260905132005 65 339 0.0 0.0 0.00 0.00 0.00 88 1012.3
20260905131911 65 315 0.0 0.0 0.00 0.00 0.00 88 1012.3
20260905131810 65 313 0.0 0.0 0.00 0.00 0.00 89 1012.3
20260905131619 65 344 0.0 0.0 0.00 0.00 0.00 89 1012.3
20260905131533 65 344 0.0 0.0 0.00 0.00 0.00 89 1012.3
20260905131404 65 344 0.0 0.0 0.00 0.00 0.00 89 1012.3
20260905131314 65 331 0.0 0.0 0.00 0.00 0.00 89 1012.3
20260905131138 65 350 0.0 0.0 0.00 0.00 0.00 88 1012.3
20260905131025 65 292 0.0 0.0 0.00 0.00 0.00 88 1012.3
20260905130927 65 336 0.0 0.0 0.00 0.00 0.00 90 1012.3
20260905130846 65 317 0.0 0.0 0.00 0.00 0.00 89 1012.2
20260905130716 65 340 0.0 0.0 0.00 0.00 0.00 89 1012.2
20260905130631 65 311 0.0 0.0 0.00 0.00 0.00 90 1012.2
20260905130502 65 17 0.0 0.0 0.00 0.00 0.00 90 1012.1
20260905130422 65 324 0.0 0.0 0.00 0.00 0.00 90 1012.1
20260905130226 65 322 0.0 0.0 0.00 0.00 0.00 90 1012.1
20260905130147 65 331 0.0 0.0 0.00 0.00 0.00 89 1012.1
20260905130050 65 327 0.0 0.0 0.00 0.00 0.00 91 1012.1
20260905125950 65 343 0.0 0.0 0.00 0.00 0.00 91 1012.1
20260905125911 65 344 0.0 0.0 0.00 0.00 0.00 90 1012.2
20260905125818 65 346 0.0 0.0 0.00 0.00 0.00 91 1012.1
20260905125719 65 344 0.0 0.0 0.00 0.00 0.00 91 1012.1
20260905125548 65 319 0.0 0.0 0.00 0.00 0.00 91 1012.1
20260905125423 65 313 0.0 0.0 0.00 0.00 0.00 90 1012.1
20260905125326 65 327 0.0 0.0 0.00 0.00 0.00 91 1012.1
20260905125227 64 311 0.0 0.0 0.00 0.00 0.00 91 1012.1
20260905125004 64 347 0.0 0.0 0.00 0.00 0.00 90 1012.0
20260905124927 64 331 0.0 0.0 0.00 0.00 0.00 91 1012.0
20260905124728 64 338 0.0 0.0 0.00 0.00 0.00 91 1012.0
20260905124651 64 344 0.0 0.0 0.00 0.00 0.00 92 1012.1
20260905124557 64 355 0.0 0.0 0.00 0.00 0.00 91 1012.1
20260905124518 64 329 0.0 0.0 0.00 0.00 0.00 91 1012.1
20260905124349 64 330 0.0 0.0 0.00 0.00 0.00 91 1012.1
20260905124305 64 327 0.0 0.0 0.00 0.00 0.00 91 1012.1
20260905124051 64 323 0.0 0.0 0.00 0.00 0.00 91 1012.1
20260905124012 64 313 0.0 0.0 0.00 0.00 0.00 91 1012.1
20260905123915 64 317 0.0 0.0 0.00 0.00 0.00 91 1012.1
20260905123836 64 355 0.0 0.0 0.00 0.00 0.00 91 1012.1
20260905123705 64 346 0.0 0.0 0.00 0.00 0.00 91 1012.2
20260905123619 64 336 0.0 0.0 0.00 0.00 0.00 91 1012.1
20260905123427 64 337 0.0 0.0 0.00 0.00 0.00 91 1012.2
20260905123328 64 319 0.0 0.0 0.00 0.00 0.00 91 1012.2
20260905123159 64 321 0.0 0.0 0.00 0.00 0.00 91 1012.2
20260905123037 64 349 0.0 0.0 0.00 0.00 0.00 91 1012.1
20260905122957 64 337 0.0 0.0 0.00 0.00 0.00 91 1012.1
20260905122911 64 5 0.0 0.0 0.00 0.00 0.00 91 1012.1
20260905122718 64 329 0.0 0.0 0.00 0.00 0.00 91 1012.0
20260905122642 64 311 0.0 0.0 0.00 0.00 0.00 91 1012.0
20260905122534 64 355 0.0 0.0 0.00 0.00 0.00 91 1012.0
20260905122406 64 346 0.0 0.0 0.00 0.00 0.00 91 1011.9
20260905122307 64 331 0.0 0.0 0.00 0.00 0.00 91 1011.9
20260905122149 64 360 0.0 0.0 0.00 0.00 0.00 91 1011.9
20260905122028 64 338 0.0 0.0 0.00 0.00 0.00 91 1011.9
20260905121932 64 328 0.0 0.0 0.00 0.00 0.00 91 1011.9
20260905121839 64 5 0.0 0.0 0.00 0.00 0.00 91 1011.9
20260905121759 64 342 0.0 0.0 0.00 0.00 0.00 91 1011.9
20260905121702 64 351 0.0 0.0 0.00 0.00 0.00 91 1011.9
20260905121544 64 348 0.0 0.0 0.00 0.00 0.00 91 1011.9
20260905121449 64 340 0.0 0.0 0.00 0.00 0.00 91 1011.9
20260905121349 64 350 0.0 0.0 0.00 0.00 0.00 91 1011.9
20260905121132 64 340 0.0 0.0 0.00 0.00 0.00 91 1011.9
20260905121035 64 337 0.0 0.0 0.00 0.00 0.00 91 1011.9
20260905120923 64 332 0.0 0.0 0.00 0.00 0.00 91 1011.9
20260905120844 64 338 0.0 0.0 0.00 0.00 0.00 91 1011.9
20260905120725 64 328 0.0 0.0 0.00 0.00 0.00 91 1011.9
20260905120648 64 329 0.0 0.0 0.00 0.00 0.00 91 1011.8
20260905120456 64 355 0.0 0.0 0.00 0.00 0.00 91 1011.8
20260905120350 64 333 0.0 0.0 0.00 0.00 0.00 91 1011.8
20260905120158 64 24 0.0 0.0 0.00 0.00 0.00 91 1011.8
20260905120121 64 355 0.0 0.0 0.00 0.00 0.00 91 1011.8
20260905120034 64 355 0.0 0.0 0.00 0.00 0.00 91 1011.8
20260905115905 64 340 0.0 0.0 0.00 0.00 0.00 91 1011.8
20260905115826 64 339 0.0 0.0 0.00 0.00 0.00 91 1011.8
20260905115657 64 355 0.0 0.0 0.00 0.00 0.00 91 1011.8
20260905115611 64 343 0.0 0.0 0.00 0.00 0.00 91 1011.8
20260905115437 63 9 0.0 0.0 0.00 0.00 0.00 91 1011.8
20260905115334 63 336 0.0 0.0 0.00 0.00 0.00 91 1011.8
20260905115229 63 344 0.0 0.0 0.00 0.00 0.00 91 1011.8
20260905115150 63 17 0.0 0.0 0.00 0.00 0.00 91 1011.8
20260905115111 63 334 0.0 0.0 0.00 0.00 0.00 92 1011.8
20260905115014 63 340 0.0 0.0 0.00 0.00 0.00 91 1011.8
20260905114936 63 340 0.0 0.0 0.00 0.00 0.00 92 1011.8
20260905114807 63 338 0.0 0.0 0.00 0.00 0.00 92 1011.8
20260905114719 63 360 0.0 0.0 0.00 0.00 0.00 92 1011.7
20260905114423 63 360 0.0 0.0 0.00 0.00 0.00 92 1011.7
20260905114336 63 5 0.0 0.0 0.00 0.00 0.00 92 1011.7
20260905114135 63 342 0.0 0.0 0.00 0.00 0.00 92 1011.7
20260905114030 63 336 0.0 0.0 0.00 0.00 0.00 92 1011.7
20260905113952 63 355 0.0 1.7 0.00 0.00 0.00 92 1011.7
20260905113915 63 348 0.0 5.2 0.00 0.00 0.00 92 1011.7
20260905113830 63 355 0.0 5.2 0.00 0.00 0.00 92 1011.7
20260905113659 63 339 0.0 5.2 0.00 0.00 0.00 92 1011.7
20260905113620 63 329 0.0 5.2 0.00 0.00 0.00 93 1011.7
20260905113426 63 333 0.0 5.2 0.00 0.00 0.00 92 1011.8
20260905113351 63 333 0.0 5.2 0.00 0.00 0.00 92 1011.7
20260905113236 63 305 0.9 5.2 0.00 0.00 0.00 93 1011.8
20260905113156 63 340 2.6 5.2 0.00 0.00 0.00 93 1011.7
20260905113007 63 324 3.5 5.2 0.00 0.00 0.00 93 1011.7
20260905112841 63 341 2.6 5.2 0.00 0.00 0.00 93 1011.7
20260905112723 63 336 3.5 5.2 0.00 0.00 0.00 93 1011.7
20260905112645 63 331 3.5 5.2 0.00 0.00 0.00 93 1011.7
20260905112516 63 348 2.6 5.2 0.00 0.00 0.00 93 1011.6
20260905112431 63 351 3.5 5.2 0.00 0.00 0.00 93 1011.6
20260905112301 63 322 2.6 5.2 0.00 0.00 0.00 93 1011.7
20260905112226 63 324 0.9 2.6 0.00 0.00 0.00 93 1011.7
20260905112031 63 333 0.0 0.0 0.00 0.00 0.00 93 1011.6
20260905111952 63 333 0.0 0.0 0.00 0.00 0.00 93 1011.6
20260905111855 63 342 0.0 0.0 0.00 0.00 0.00 93 1011.6
20260905111755 63 342 0.0 0.0 0.00 0.00 0.00 93 1011.6
20260905111716 63 350 0.0 0.0 0.00 0.00 0.00 93 1011.6
20260905111620 63 344 0.0 0.0 0.00 0.00 0.00 93 1011.6
20260905111521 63 344 0.0 0.0 0.00 0.00 0.00 93 1011.6
20260905111442 63 344 0.0 0.0 0.00 0.00 0.00 93 1011.6
20260905111304 63 345 0.0 0.0 0.00 0.00 0.00 93 1011.6
20260905111226 63 330 0.0 0.0 0.00 0.00 0.00 93 1011.6
20260905111040 63 348 0.0 0.0 0.00 0.00 0.00 93 1011.6
20260905110934 63 339 0.0 0.0 0.00 0.00 0.00 93 1011.6
20260905110856 63 347 0.0 0.0 0.00 0.00 0.00 93 1011.6
20260905110748 63 355 0.0 0.0 0.00 0.00 0.00 93 1011.6
20260905110629 63 5 0.0 0.0 0.00 0.00 0.00 93 1011.5
20260905110533 63 338 0.0 0.0 0.00 0.00 0.00 93 1011.5
20260905110432 63 338 0.0 0.0 0.00 0.00 0.00 93 1011.5
20260905110303 62 355 0.0 0.0 0.00 0.00 0.00 94 1011.5
20260905110155 62 355 0.0 0.0 0.00 0.00 0.00 94 1011.4
20260905110004 62 355 0.0 0.0 0.00 0.00 0.00 94 1011.4
20260905105925 62 355 0.0 0.0 0.00 0.00 0.00 94 1011.4
20260905105733 62 342 0.0 0.0 0.00 0.00 0.00 94 1011.4
20260905105654 62 342 0.0 0.0 0.00 0.00 0.00 94 1011.4
20260905105558 62 355 0.0 0.0 0.00 0.00 0.00 94 1011.4
20260905105440 62 360 0.0 0.0 0.00 0.00 0.00 94 1011.4
20260905105325 62 348 0.0 0.0 0.00 0.00 0.00 94 1011.4
20260905105247 62 343 0.0 0.0 0.00 0.00 0.00 94 1011.4
20260905105208 62 15 0.0 0.0 0.00 0.00 0.00 94 1011.4
20260905105113 62 22 0.0 0.0 0.00 0.00 0.00 95 1011.4
20260905105033 62 335 0.0 0.0 0.00 0.00 0.00 95 1011.4
20260905104904 62 355 0.0 0.0 0.00 0.00 0.00 95 1011.3
20260905104824 62 355 0.0 0.0 0.00 0.00 0.00 95 1011.3
20260905104634 62 355 0.0 0.0 0.00 0.00 0.00 95 1011.2
20260905104548 62 355 0.0 0.0 0.00 0.00 0.00 95 1011.3
20260905104419 62 355 0.0 0.0 0.00 0.00 0.00 95 1011.3
20260905104341 62 355 0.0 0.0 0.00 0.00 0.00 95 1011.3
20260905104211 62 355 0.0 0.0 0.00 0.00 0.00 95 1011.3
20260905104115 62 355 0.0 0.0 0.00 0.00 0.00 95 1011.3
20260905104037 62 344 0.0 0.0 0.00 0.00 0.00 95 1011.3
20260905103845 62 355 0.0 0.0 0.00 0.00 0.00 95 1011.3
20260905103740 62 355 0.0 0.0 0.00 0.00 0.00 95 1011.3
20260905103627 62 355 0.0 0.0 0.00 0.00 0.00 96 1011.3
20260905103548 62 355 0.0 0.0 0.00 0.00 0.00 95 1011.3
20260905103512 62 355 0.0 0.0 0.00 0.00 0.00 96 1011.2
20260905103415 62 355 0.0 0.0 0.00 0.00 0.00 95 1011.2
20260905103337 62 355 0.0 0.0 0.00 0.00 0.00 95 1011.2
20260905103204 62 355 0.0 0.0 0.00 0.00 0.00 95 1011.3
20260905103119 62 355 0.0 0.0 0.00 0.00 0.00 95 1011.3
20260905102929 61 355 0.0 0.0 0.00 0.00 0.00 95 1011.3
20260905102840 61 350 0.0 0.0 0.00 0.00 0.00 95 1011.2
20260905102711 61 350 0.0 0.0 0.00 0.00 0.00 95 1011.2
20260905102632 61 5 0.0 0.0 0.00 0.00 0.00 95 1011.2
20260905102440 61 11 0.0 0.0 0.00 0.00 0.00 96 1011.2
20260905102340 61 11 0.0 0.0 0.00 0.00 0.00 96 1011.2
20260905102243 61 11 0.0 0.0 0.00 0.00 0.00 96 1011.2
20260905102204 61 11 0.0 0.0 0.00 0.00 0.00 96 1011.2
20260905102014 61 11 0.0 0.0 0.00 0.00 0.00 96 1011.2
20260905101928 61 11 0.0 0.0 0.00 0.00 0.00 96 1011.2
20260905101757 61 11 0.0 0.0 0.00 0.00 0.00 96 1011.2
20260905101721 61 11 0.0 0.0 0.00 0.00 0.00 96 1011.2
20260905101636 61 11 0.0 0.0 0.00 0.00 0.00 96 1011.2
20260905101505 61 11 0.0 0.0 0.00 0.00 0.00 96 1011.3
20260905101426 61 11 0.0 0.0 0.00 0.00 0.00 96 1011.2
20260905101311 61 11 0.0 0.0 0.00 0.00 0.00 95 1011.2
20260905101246 61 11 0.0 0.0 0.00 0.00 0.00 95 1011.2
20260905101038 61 11 0.0 0.0 0.00 0.00 0.00 95 1011.2
20260905100933 61 11 0.0 0.0 0.00 0.00 0.00 95 1011.2
20260905100854 61 11 0.0 0.0 0.00 0.00 0.00 95 1011.2
20260905100758 61 11 0.0 0.0 0.00 0.00 0.00 95 1011.3
20260905100638 61 11 0.0 0.0 0.00 0.00 0.00 95 1011.2
20260905100543 61 11 0.0 0.0 0.00 0.00 0.00 95 1011.2
20260905100503 61 11 0.0 0.0 0.00 0.00 0.00 95 1011.2
20260905100313 61 11 0.0 0.0 0.00 0.00 0.00 95 1011.2
20260905100227 61 11 0.0 0.0 0.00 0.00 0.00 95 1011.2
20260905100002 61 11 0.0 0.0 0.00 0.00 0.00 95 1011.2
20260905095755 61 11 0.0 0.0 0.00 0.00 0.00 96 1011.1
20260905095603 61 11 0.0 0.0 0.00 0.00 0.00 96 1011.2
20260905095524 61 11 0.0 0.0 0.00 0.00 0.00 96 1011.2
20260905095329 61 11 0.0 0.0 0.00 0.00 0.00 96 1011.2
20260905095250 60 11 0.0 0.0 0.00 0.00 0.00 96 1011.2
20260905095134 60 11 0.0 0.0 0.00 0.00 0.00 96 1011.2
20260905095054 60 11 0.0 0.0 0.00 0.00 0.00 95 1011.1
20260905095016 60 11 0.0 0.0 0.00 0.00 0.00 95 1011.1
20260905094921 60 11 0.0 0.0 0.00 0.00 0.00 96 1011.1
20260905094846 60 11 0.0 0.0 0.00 0.00 0.00 96 1011.1
20260905094715 60 11 0.0 0.0 0.00 0.00 0.00 95 1011.1
20260905094630 60 11 0.0 0.0 0.00 0.00 0.00 96 1011.1
20260905094500 60 11 0.0 0.0 0.00 0.00 0.00 95 1011.1
20260905094423 60 11 0.0 0.0 0.00 0.00 0.00 95 1011.1
20260905094135 60 11 0.0 0.0 0.00 0.00 0.00 95 1011.1
20260905094057 60 11 0.0 0.0 0.00 0.00 0.00 95 1011.1
20260905094001 60 11 0.0 0.0 0.00 0.00 0.00 95 1011.1
20260905093921 60 11 0.0 0.0 0.00 0.00 0.00 95 1011.1
20260905093751 60 11 0.0 0.0 0.00 0.00 0.00 95 1011.2
20260905093645 60 11 0.0 0.0 0.00 0.00 0.00 95 1011.2
20260905093515 60 11 0.0 0.0 0.00 0.00 0.00 95 1011.1
20260905093420 60 11 0.0 0.0 0.00 0.00 0.00 95 1011.1
20260905093249 60 11 0.0 0.0 0.00 0.00 0.00 95 1011.1
20260905093215 60 11 0.0 0.0 0.00 0.00 0.00 95 1011.1
20260905093026 60 11 0.0 0.0 0.00 0.00 0.00 95 1011.1
20260905092941 60 11 0.0 0.0 0.00 0.00 0.00 95 1011.1
20260905092842 60 11 0.0 0.0 0.00 0.00 0.00 95 1011.1
20260905092733 60 11 0.0 0.0 0.00 0.00 0.00 95 1011.1
20260905092633 60 11 0.0 0.0 0.00 0.00 0.00 95 1011.1
20260905092437 60 11 0.0 0.0 0.00 0.00 0.00 95 1011.1
20260905092342 60 11 0.0 0.0 0.00 0.00 0.00 95 1011.0
20260905092246 60 11 0.0 0.0 0.00 0.00 0.00 95 1011.1
20260905092146 60 11 0.0 0.0 0.00 0.00 0.00 95 1011.0
20260905092109 60 11 0.0 0.0 0.00 0.00 0.00 95 1011.1
20260905092014 60 11 0.0 0.0 0.00 0.00 0.00 95 1011.1
20260905091936 60 11 0.0 0.0 0.00 0.00 0.00 95 1011.1
20260905091805 60 11 0.0 0.0 0.00 0.00 0.00 95 1011.1
20260905091638 60 11 0.0 0.0 0.00 0.00 0.00 95 1011.0
20260905091523 60 11 0.0 0.0 0.00 0.00 0.00 95 1011.1
20260905091425 60 11 0.0 0.0 0.00 0.00 0.00 95 1011.1
20260905091352 60 11 0.0 0.0 0.00 0.00 0.00 95 1011.1
20260905091237 60 11 0.0 0.0 0.00 0.00 0.00 95 1011.1
20260905091113 60 11 0.0 0.0 0.00 0.00 0.00 95 1011.1
20260905091044 60 11 0.0 0.0 0.00 0.00 0.00 95 1011.0
20260905090940 60 11 0.0 0.0 0.00 0.00 0.00 95 1011.1
20260905090902 60 11 0.0 0.0 0.00 0.00 0.00 95 1011.1
20260905090807 60 11 0.0 0.0 0.00 0.00 0.00 95 1011.1
20260905090728 60 11 0.0 0.0 0.00 0.00 0.00 95 1011.1
20260905090536 60 11 0.0 0.0 0.00 0.00 0.00 96 1011.1
20260905090437 60 11 0.0 0.0 0.00 0.00 0.00 96 1011.1
20260905090341 60 11 0.0 0.0 0.00 0.00 0.00 95 1011.1
20260905090242 60 11 0.0 0.0 0.00 0.00 0.00 95 1011.1
20260905090113 60 11 0.0 0.0 0.00 0.00 0.00 95 1011.1
20260905090027 60 11 0.0 0.0 0.00 0.00 0.00 95 1011.1
20260905085857 60 11 0.0 0.0 0.00 0.00 0.00 95 1011.1
20260905085818 60 11 0.0 0.0 0.00 0.00 0.00 95 1011.1
20260905085641 60 11 0.0 0.0 0.00 0.00 0.00 95 1011.0
20260905085542 60 11 0.0 0.0 0.00 0.00 0.00 95 1011.0
20260905085430 60 11 0.0 0.0 0.00 0.00 0.00 95 1011.0
20260905085351 60 11 0.0 0.0 0.00 0.00 0.00 95 1011.0
20260905085251 60 11 0.0 0.0 0.00 0.00 0.00 95 1011.0
20260905085154 59 11 0.0 0.0 0.00 0.00 0.00 95 1011.0
20260905085115 59 11 0.0 0.0 0.00 0.00 0.00 95 1011.0
20260905084947 59 11 0.0 0.0 0.00 0.00 0.00 95 1011.0
20260905084842 59 11 0.0 0.0 0.00 0.00 0.00 95 1011.0
20260905084725 59 11 0.0 0.0 0.00 0.00 0.00 95 1011.0
20260905084645 59 11 0.0 0.0 0.00 0.00 0.00 95 1010.9
20260905084516 59 11 0.0 0.0 0.00 0.00 0.00 95 1011.0
20260905084431 59 11 0.0 0.0 0.00 0.00 0.00 95 1011.0
20260905084306 59 11 0.0 0.0 0.00 0.00 0.00 95 1010.9
20260905084228 59 11 0.0 0.0 0.00 0.00 0.00 95 1010.9
20260905084032 59 11 0.0 0.0 0.00 0.00 0.00 95 1010.9
20260905083952 59 11 0.0 0.0 0.00 0.00 0.00 95 1010.9
20260905083855 59 11 0.0 0.0 0.00 0.00 0.00 95 1010.9
20260905083817 59 11 0.0 0.0 0.00 0.00 0.00 95 1010.9
20260905083538 59 11 0.0 0.0 0.00 0.00 0.00 95 1010.9
20260905083431 59 11 0.0 0.0 0.00 0.00 0.00 95 1010.9
20260905083334 59 11 0.0 0.0 0.00 0.00 0.00 95 1010.9
20260905083239 59 11 0.0 0.0 0.00 0.00 0.00 95 1010.9
20260905083200 59 11 0.0 0.0 0.00 0.00 0.00 95 1010.9
20260905083105 59 11 0.0 0.0 0.00 0.00 0.00 95 1010.9
20260905083004 59 11 0.0 0.0 0.00 0.00 0.00 95 1010.9
20260905082835 59 11 0.0 0.0 0.00 0.00 0.00 95 1010.9
20260905082730 59 11 0.0 0.0 0.00 0.00 0.00 95 1010.9
20260905082540 59 11 0.0 0.0 0.00 0.00 0.00 95 1010.9
20260905082429 59 11 0.0 0.0 0.00 0.00 0.00 95 1010.9
20260905082309 59 11 0.0 0.0 0.00 0.00 0.00 95 1010.9
20260905082222 59 11 0.0 0.0 0.00 0.00 0.00 95 1010.9
20260905082052 59 11 0.0 0.0 0.00 0.00 0.00 95 1010.9
20260905081937 58 11 0.0 0.0 0.00 0.00 0.00 95 1010.9
20260905081839 58 11 0.0 0.0 0.00 0.00 0.00 95 1010.9
20260905081801 58 11 0.0 0.0 0.00 0.00 0.00 95 1010.9
20260905081640 58 11 0.0 0.0 0.00 0.00 0.00 95 1010.9
20260905081534 58 11 0.0 0.0 0.00 0.00 0.00 95 1010.9
20260905081404 58 11 0.0 0.0 0.00 0.00 0.00 95 1010.9
20260905081326 58 11 0.0 0.0 0.00 0.00 0.00 95 1010.9
20260905081131 58 11 0.0 0.0 0.00 0.00 0.00 95 1010.9
20260905081053 58 11 0.0 0.0 0.00 0.00 0.00 95 1010.9
20260905080956 58 11 0.0 0.0 0.00 0.00 0.00 95 1010.9
20260905080918 58 11 0.0 0.0 0.00 0.00 0.00 95 1010.9
20260905080724 58 11 0.0 0.0 0.00 0.00 0.00 95 1010.9
20260905080626 58 11 0.0 0.0 0.00 0.00 0.00 95 1010.9
20260905080531 58 11 0.0 0.0 0.00 0.00 0.00 95 1010.9
20260905080452 58 11 0.0 0.0 0.00 0.00 0.00 95 1010.9
20260905080412 58 11 0.0 0.0 0.00 0.00 0.00 95 1010.9
20260905080316 58 11 0.0 0.0 0.00 0.00 0.00 95 1010.9
20260905080216 58 11 0.0 0.0 0.00 0.00 0.00 95 1010.9
20260905080027 58 11 0.0 0.0 0.00 0.00 0.00 95 1010.9
20260905075923 58 11 0.0 0.0 0.00 0.00 0.00 95 1010.9
20260905075848 58 11 0.0 0.0 0.00 0.00 0.00 95 1010.9
20260905075752 58 11 0.0 0.0 0.00 0.00 0.00 95 1010.9
20260905075634 58 11 0.0 0.0 0.00 0.00 0.00 95 1010.9
20260905075538 58 11 0.0 0.0 0.00 0.00 0.00 95 1010.9
20260905075459 58 11 0.0 0.0 0.00 0.00 0.00 95 1010.9
20260905075307 58 11 0.0 0.0 0.00 0.00 0.00 95 1010.9
20260905075140 58 11 0.0 0.0 0.00 0.00 0.00 95 1010.9
20260905075023 58 11 0.0 0.0 0.00 0.00 0.00 95 1010.8
20260905074946 58 11 0.0 0.0 0.00 0.00 0.00 95 1010.9
20260905074846 58 11 0.0 0.0 0.00 0.00 0.00 95 1010.8
20260905074732 58 11 0.0 0.0 0.00 0.00 0.00 95 1010.8
20260905074654 58 11 0.0 0.0 0.00 0.00 0.00 95 1010.9
20260905074455 58 11 0.0 0.0 0.00 0.00 0.00 95 1010.9
20260905074417 58 11 0.0 0.0 0.00 0.00 0.00 94 1010.9
20260905074228 58 11 0.0 0.0 0.00 0.00 0.00 94 1010.9
20260905074140 58 11 0.0 0.0 0.00 0.00 0.00 94 1010.9
20260905074042 58 11 0.0 0.0 0.00 0.00 0.00 94 1010.9
20260905073945 58 11 0.0 0.0 0.00 0.00 0.00 94 1010.9
20260905073906 58 11 0.0 0.0 0.00 0.00 0.00 94 1010.9
20260905073735 58 11 0.0 0.0 0.00 0.00 0.00 94 1010.8
20260905073634 58 11 0.0 0.0 0.00 0.00 0.00 94 1010.8
20260905073503 58 11 0.0 0.0 0.00 0.00 0.00 94 1010.8
20260905073325 58 11 0.0 0.0 0.00 0.00 0.00 94 1010.8
20260905073246 58 11 0.0 0.0 0.00 0.00 0.00 94 1010.8
20260905073146 58 11 0.0 0.0 0.00 0.00 0.00 94 1010.9
20260905073051 58 11 0.0 0.0 0.00 0.00 0.00 94 1010.9
20260905072950 58 11 0.0 0.0 0.00 0.00 0.00 94 1010.8
20260905072759 58 11 0.0 0.0 0.00 0.00 0.00 94 1010.8
20260905072714 58 11 0.0 0.0 0.00 0.00 0.00 94 1010.8
20260905072524 58 11 0.0 0.0 0.00 0.00 0.00 94 1010.8
20260905072440 58 11 0.0 0.0 0.00 0.00 0.00 94 1010.8
20260905072313 58 11 0.0 0.0 0.00 0.00 0.00 94 1010.9
20260905072233 58 11 0.0 0.0 0.00 0.00 0.00 94 1010.9
20260905072105 58 11 0.0 0.0 0.00 0.00 0.00 94 1010.9
20260905072019 58 11 0.0 0.0 0.00 0.00 0.00 94 1010.9
20260905071849 58 11 0.0 0.0 0.00 0.00 0.00 94 1011.0
20260905071749 58 11 0.0 0.0 0.00 0.00 0.00 94 1010.9
20260905071622 58 11 0.0 0.0 0.00 0.00 0.00 94 1011.0
20260905071548 58 11 0.0 0.0 0.00 0.00 0.00 94 1011.0
20260905071509 58 11 0.0 0.0 0.00 0.00 0.00 94 1011.0
20260905071318 58 11 0.0 0.0 0.00 0.00 0.00 94 1011.0
20260905071231 58 11 0.0 0.0 0.00 0.00 0.00 94 1011.0
20260905071105 58 11 0.0 0.0 0.00 0.00 0.00 94 1011.0
20260905071026 58 11 0.0 0.0 0.00 0.00 0.00 94 1011.0
20260905070829 58 11 0.0 0.0 0.00 0.00 0.00 94 1011.1
20260905070725 58 11 0.0 0.0 0.00 0.00 0.00 94 1011.1
20260905070627 58 11 0.0 0.0 0.00 0.00 0.00 94 1011.1
20260905070542 58 11 0.0 0.0 0.00 0.00 0.00 94 1011.1
20260905070412 58 11 0.0 0.0 0.00 0.00 0.00 93 1011.1
20260905070335 58 11 0.0 0.0 0.00 0.00 0.00 93 1011.1
20260905070138 58 11 0.0 0.0 0.00 0.00 0.00 93 1011.1
20260905070044 59 11 0.0 0.0 0.00 0.00 0.00 93 1011.1
20260905065950 59 11 0.0 0.0 0.00 0.00 0.00 93 1011.1
20260905065830 59 11 0.0 0.0 0.00 0.00 0.00 93 1011.2
20260905065733 59 11 0.0 0.0 0.00 0.00 0.00 93 1011.1
20260905065654 59 11 0.0 0.0 0.00 0.00 0.00 93 1011.1
20260905065502 59 11 0.0 0.0 0.00 0.00 0.00 93 1011.2
20260905065416 59 11 0.0 0.0 0.00 0.00 0.00 93 1011.1
20260905065225 59 11 0.0 0.0 0.00 0.00 0.00 93 1011.2
20260905065140 59 11 0.0 0.0 0.00 0.00 0.00 93 1011.2
20260905065009 59 11 0.0 0.0 0.00 0.00 0.00 93 1011.2
20260905064935 59 11 0.0 0.0 0.00 0.00 0.00 93 1011.2
20260905064738 59 11 0.0 0.0 0.00 0.00 0.00 93 1011.2
20260905064659 59 11 0.0 0.0 0.00 0.00 0.00 94 1011.2
20260905064603 59 11 0.0 0.0 0.00 0.00 0.00 94 1011.2
20260905064524 59 11 0.0 0.0 0.00 0.00 0.00 93 1011.2
20260905064354 59 11 0.0 0.0 0.00 0.00 0.00 94 1011.1
20260905064248 59 11 0.0 0.0 0.00 0.00 0.00 94 1011.1
20260905064057 59 11 0.0 0.0 0.00 0.00 0.00 94 1011.1
20260905064017 59 11 0.0 0.0 0.00 0.00 0.00 94 1011.1
20260905063840 59 11 0.0 0.0 0.00 0.00 0.00 94 1011.1
20260905063800 59 11 0.0 0.0 0.00 0.00 0.00 94 1011.1
20260905063612 59 11 0.0 0.0 0.00 0.00 0.00 94 1011.1
20260905063526 60 11 0.0 0.0 0.00 0.00 0.00 94 1011.1
20260905063354 60 11 0.0 0.0 0.00 0.00 0.00 94 1011.0
20260905063253 60 11 0.0 0.0 0.00 0.00 0.00 94 1011.1
20260905063127 60 11 0.0 0.0 0.00 0.00 0.00 94 1011.1
20260905062957 60 11 0.0 0.0 0.00 0.00 0.00 94 1011.0
20260905062850 60 11 0.0 0.0 0.00 0.00 0.00 94 1011.0
20260905062640 60 11 0.0 0.0 0.00 0.00 0.00 93 1011.0
20260905062533 60 11 0.0 0.0 0.00 0.00 0.00 93 1011.0
20260905062422 60 11 0.0 0.0 0.00 0.00 0.00 93 1011.0
20260905062343 60 11 0.0 0.0 0.00 0.00 0.00 93 1011.0
20260905062306 60 11 0.0 0.0 0.00 0.00 0.00 93 1011.1
20260905062210 60 11 0.0 0.0 0.00 0.00 0.00 93 1011.0
20260905062131 60 11 0.0 0.0 0.00 0.00 0.00 93 1011.0
20260905062001 60 11 0.0 0.0 0.00 0.00 0.00 93 1011.1
20260905061853 60 11 0.0 0.0 0.00 0.00 0.00 93 1011.0
20260905061643 60 11 0.0 0.0 0.00 0.00 0.00 93 1011.0
20260905061557 60 11 0.0 0.0 0.00 0.00 0.00 93 1011.1
20260905061407 60 11 0.0 0.0 0.00 0.00 0.00 93 1011.1
20260905061329 60 11 0.0 0.0 0.00 0.00 0.00 93 1011.1
20260905061136 60 11 0.0 0.0 0.00 0.00 0.00 93 1011.1
20260905061037 60 11 0.0 0.0 0.00 0.00 0.00 93 1011.1
20260905060940 60 11 0.0 0.0 0.00 0.00 0.00 93 1011.1
20260905060818 60 11 0.0 0.0 0.00 0.00 0.00 93 1011.1
20260905060649 60 11 0.0 0.0 0.00 0.00 0.00 93 1011.1
20260905060604 60 11 0.0 0.0 0.00 0.00 0.00 93 1011.1
20260905060434 61 11 0.0 0.0 0.00 0.00 0.00 93 1011.1
20260905060336 61 11 0.0 0.0 0.00 0.00 0.00 93 1011.1
20260905060218 61 11 0.0 0.0 0.00 0.00 0.00 93 1011.1
20260905060140 61 11 0.0 0.0 0.00 0.00 0.00 93 1011.1
20260905060011 61 11 0.0 0.0 0.00 0.00 0.00 93 1011.1
20260905055925 61 11 0.0 0.0 0.00 0.00 0.00 94 1011.1
20260905055759 61 11 0.0 0.0 0.00 0.00 0.00 94 1011.1
20260905055721 61 11 0.0 0.0 0.00 0.00 0.00 94 1011.1
20260905055523 61 11 0.0 0.0 0.00 0.00 0.00 94 1011.0
20260905055426 61 11 0.0 0.0 0.00 0.00 0.00 93 1011.1
20260905055331 61 11 0.0 0.0 0.00 0.00 0.00 93 1011.1
20260905055252 61 11 0.0 0.0 0.00 0.00 0.00 93 1011.1
20260905055215 61 11 0.0 0.0 0.00 0.00 0.00 93 1011.0
20260905055117 61 11 0.0 0.0 0.00 0.00 0.00 94 1011.0
20260905055040 61 11 0.0 0.0 0.00 0.00 0.00 94 1011.0
20260905054909 61 11 0.0 0.0 0.00 0.00 0.00 94 1011.0
20260905054823 61 11 0.0 0.0 0.00 0.00 0.00 94 1011.0
20260905054657 61 11 0.0 0.0 0.00 0.00 0.00 94 1011.0
20260905054619 61 11 0.0 0.0 0.00 0.00 0.00 94 1011.1
20260905054448 61 11 0.0 0.0 0.00 0.00 0.00 94 1011.0
20260905054343 61 11 0.0 0.0 0.00 0.00 0.00 94 1011.0
20260905054304 61 11 0.0 0.0 0.00 0.00 0.00 94 1011.0
20260905054208 61 11 0.0 0.0 0.00 0.00 0.00 94 1011.0
20260905054107 61 11 0.0 0.0 0.00 0.00 0.00 94 1011.0
20260905054030 61 11 0.0 0.0 0.00 0.00 0.00 94 1011.0
20260905053921 61 11 0.0 0.0 0.00 0.00 0.00 94 1011.0
20260905053821 61 11 0.0 0.0 0.00 0.00 0.00 94 1011.0
20260905053627 61 11 0.0 0.0 0.00 0.00 0.00 94 1011.0
20260905053532 61 11 0.0 0.0 0.00 0.00 0.00 94 1011.0
20260905053435 61 11 0.0 0.0 0.00 0.00 0.00 94 1011.0
20260905053357 61 11 0.0 0.0 0.00 0.00 0.00 94 1011.0
20260905053319 61 11 0.0 0.0 0.00 0.00 0.00 94 1011.0
20260905053222 61 11 0.0 0.0 0.00 0.00 0.00 94 1011.0
20260905053123 61 11 0.0 0.0 0.00 0.00 0.00 94 1011.0
20260905052935 61 11 0.0 0.0 0.00 0.00 0.00 94 1011.0
20260905052828 61 11 0.0 0.0 0.00 0.00 0.00 94 1011.0
20260905052730 61 11 0.0 0.0 0.00 0.00 0.00 94 1011.0
20260905052636 61 11 0.0 0.0 0.00 0.00 0.00 94 1011.0
20260905052559 61 11 0.0 0.0 0.00 0.00 0.00 94 1011.0
20260905052423 61 11 0.0 0.0 0.00 0.00 0.00 94 1011.0
20260905052340 61 11 0.0 0.0 0.00 0.00 0.00 94 1011.0
20260905052240 61 11 0.0 0.0 0.00 0.00 0.00 94 1011.0
20260905052125 61 11 0.0 0.0 0.00 0.00 0.00 94 1011.1
20260905052046 61 11 0.0 0.0 0.00 0.00 0.00 94 1011.0
20260905051931 61 11 0.0 0.0 0.00 0.00 0.00 94 1011.1
20260905051852 61 11 0.0 0.0 0.00 0.00 0.00 94 1011.0
20260905051727 61 11 0.0 0.0 0.00 0.00 0.00 94 1011.1
20260905051648 61 11 0.0 0.0 0.00 0.00 0.00 94 1011.1
20260905051610 61 11 0.0 0.0 0.00 0.00 0.00 94 1011.1
20260905051513 61 11 0.0 0.0 0.00 0.00 0.00 94 1011.1
20260905051433 61 11 0.0 0.0 0.00 0.00 0.00 94 1011.1
20260905051305 61 11 0.0 0.0 0.00 0.00 0.00 94 1011.1
20260905051218 61 11 0.0 0.0 0.00 0.00 0.00 94 1011.1
20260905051050 61 11 0.0 0.0 0.00 0.00 0.00 94 1011.1
20260905050949 61 11 0.0 0.0 0.00 0.00 0.00 94 1011.2
20260905050834 61 11 0.0 0.0 0.00 0.00 0.00 94 1011.2
20260905050805 61 11 0.0 0.0 0.00 0.00 0.00 94 1011.2
20260905050709 61 11 0.0 0.0 0.00 0.00 0.00 94 1011.2
20260905050612 61 11 0.0 0.0 0.00 0.00 0.00 94 1011.2
20260905050533 61 11 0.0 0.0 0.00 0.00 0.00 94 1011.2
20260905050337 61 11 0.0 0.0 0.00 0.00 0.00 94 1011.2
20260905050239 61 11 0.0 0.0 0.00 0.00 0.00 94 1011.2
20260905050143 61 11 0.0 0.0 0.00 0.00 0.00 94 1011.2
20260905050105 61 11 0.0 0.0 0.00 0.00 0.00 94 1011.2
20260905045913 61 11 0.0 0.0 0.00 0.00 0.00 94 1011.2
20260905045830 61 11 0.0 0.0 0.00 0.00 0.00 94 1011.2
20260905045639 61 11 0.0 0.0 0.00 0.00 0.00 94 1011.2
20260905045606 61 11 0.0 0.0 0.00 0.00 0.00 94 1011.1
20260905045417 61 11 0.0 0.0 0.00 0.00 0.00 94 1011.2
20260905045339 61 11 0.0 0.0 0.00 0.00 0.00 94 1011.1
20260905045147 61 11 0.0 0.0 0.00 0.00 0.00 94 1011.2
20260905045024 61 11 0.0 0.0 0.00 0.00 0.00 94 1011.2
20260905044929 61 11 0.0 0.0 0.00 0.00 0.00 94 1011.2
20260905044849 61 11 0.0 0.0 0.00 0.00 0.00 94 1011.2
20260905044718 61 11 0.0 0.0 0.00 0.00 0.00 94 1011.2
20260905044632 61 11 0.0 0.0 0.00 0.00 0.00 94 1011.2
20260905044441 61 11 0.0 0.0 0.00 0.00 0.00 94 1011.2
20260905044341 61 11 0.0 0.0 0.00 0.00 0.00 94 1011.2
20260905044225 61 11 0.0 0.0 0.00 0.00 0.00 94 1011.2
20260905044147 61 11 0.0 0.0 0.00 0.00 0.00 94 1011.2
20260905044110 61 11 0.0 0.0 0.00 0.00 0.00 94 1011.2
20260905043955 61 11 0.0 0.0 0.00 0.00 0.00 94 1011.2
20260905043915 61 11 0.0 0.0 0.00 0.00 0.00 94 1011.2
20260905043745 61 11 0.0 0.0 0.00 0.00 0.00 93 1011.2
20260905043638 61 11 0.0 0.0 0.00 0.00 0.00 93 1011.2
20260905043508 61 11 0.0 0.0 0.00 0.00 0.00 93 1011.2
20260905043407 61 11 0.0 0.0 0.00 0.00 0.00 93 1011.2
20260905043309 61 11 0.0 0.0 0.00 0.00 0.00 93 1011.2
20260905043216 61 11 0.0 0.0 0.00 0.00 0.00 94 1011.2
20260905043137 61 11 0.0 0.0 0.00 0.00 0.00 94 1011.2
20260905043007 61 11 0.0 0.0 0.00 0.00 0.00 94 1011.2
20260905042920 61 11 0.0 0.0 0.00 0.00 0.00 94 1011.2
20260905042729 61 11 0.0 0.0 0.00 0.00 0.00 94 1011.2
20260905042643 61 11 0.0 0.0 0.00 0.00 0.00 94 1011.2
20260905042514 61 11 0.0 0.0 0.00 0.00 0.00 93 1011.1
20260905042436 61 11 0.0 0.0 0.00 0.00 0.00 93 1011.1
20260905042240 61 11 0.0 0.0 0.00 0.00 0.00 93 1011.2
20260905042201 61 11 0.0 0.0 0.00 0.00 0.00 93 1011.2
20260905042104 61 11 0.0 0.0 0.00 0.00 0.00 93 1011.2
20260905042009 61 11 0.0 0.0 0.00 0.00 0.00 93 1011.2
20260905041728 61 11 0.0 0.0 0.00 0.00 0.00 93 1011.2
20260905041622 61 11 0.0 0.0 0.00 0.00 0.00 93 1011.2
20260905041553 61 11 0.0 0.0 0.00 0.00 0.00 93 1011.3
20260905041457 61 11 0.0 0.0 0.00 0.00 0.00 93 1011.2
20260905041419 61 11 0.0 0.0 0.00 0.00 0.00 93 1011.2
20260905041248 61 11 0.0 0.0 0.00 0.00 0.00 93 1011.2
20260905041125 61 11 0.0 0.0 0.00 0.00 0.00 93 1011.2
20260905041030 61 11 0.0 0.0 0.00 0.00 0.00 93 1011.2
20260905040955 61 11 0.0 0.0 0.00 0.00 0.00 93 1011.2
20260905040804 61 11 0.0 0.0 0.00 0.00 0.00 93 1011.2
20260905040727 61 11 0.0 0.0 0.00 0.00 0.00 93 1011.2
20260905040548 61 11 0.0 0.0 0.00 0.00 0.00 93 1011.2
20260905040329 61 11 0.0 0.0 0.00 0.00 0.00 93 1011.2
20260905040230 61 11 0.0 0.0 0.00 0.00 0.00 93 1011.2
20260905040134 61 11 0.0 0.0 0.00 0.00 0.00 93 1011.2
20260905040036 61 11 0.0 0.0 0.00 0.00 0.00 93 1011.2
20260905035959 61 11 0.0 0.0 0.00 0.00 0.00 93 1011.4
20260905035826 61 11 0.0 0.0 0.00 0.00 0.00 93 1011.3
20260905035743 61 11 0.0 0.0 0.00 0.00 0.00 93 1011.4
20260905035703 61 11 0.0 0.0 0.00 0.00 0.00 93 1011.4
20260905035605 61 11 0.0 0.0 0.00 0.00 0.00 93 1011.3
20260905035520 61 11 0.0 0.0 0.00 0.00 0.00 93 1011.3
20260905035332 61 11 0.0 0.0 0.00 0.00 0.00 93 1011.3
20260905035247 61 11 0.0 0.0 0.00 0.00 0.00 93 1011.3
20260905035037 61 11 0.0 0.0 0.00 0.00 0.00 93 1011.3
20260905034952 61 11 0.0 0.0 0.00 0.00 0.00 92 1011.3
20260905034821 61 11 0.0 0.0 0.00 0.00 0.00 92 1011.3
20260905034747 61 11 0.0 0.0 0.00 0.00 0.00 92 1011.3
20260905034529 62 11 0.0 0.0 0.00 0.00 0.00 92 1011.3
20260905034450 62 11 0.0 0.0 0.00 0.00 0.00 92 1011.3
20260905034334 62 11 0.0 0.0 0.00 0.00 0.00 92 1011.3
20260905034257 62 11 0.0 0.0 0.00 0.00 0.00 92 1011.2
20260905034218 62 11 0.0 0.0 0.00 0.00 0.00 92 1011.3
20260905034121 62 11 0.0 0.0 0.00 0.00 0.00 92 1011.4
20260905034042 62 11 0.0 0.0 0.00 0.00 0.00 92 1011.4
20260905033914 62 11 0.0 0.0 0.00 0.00 0.00 92 1011.3
20260905033829 62 11 0.0 0.0 0.00 0.00 0.00 92 1011.3
20260905033642 62 11 0.0 0.0 0.00 0.00 0.00 92 1011.3
20260905033539 62 11 0.0 0.0 0.00 0.00 0.00 92 1011.2
20260905033423 62 11 0.0 0.0 0.00 0.00 0.00 93 1011.3
20260905033345 62 11 0.0 0.0 0.00 0.00 0.00 93 1011.2
20260905033215 62 11 0.0 0.0 0.00 0.00 0.00 93 1011.2
20260905033129 62 11 0.0 0.0 0.00 0.00 0.00 93 1011.2
20260905032959 62 11 0.0 0.0 0.00 0.00 0.00 93 1011.2
20260905032920 62 11 0.0 0.0 0.00 0.00 0.00 93 1011.1
20260905032725 62 11 0.0 0.0 0.00 0.00 0.00 92 1011.2
20260905032632 62 11 0.0 0.0 0.00 0.00 0.00 92 1011.1
20260905032536 62 11 0.0 0.0 0.00 0.00 0.00 92 1011.1
20260905032458 62 11 0.0 0.0 0.00 0.00 0.00 92 1011.2
20260905032306 62 11 0.0 0.0 0.00 0.00 0.00 92 1011.1
20260905032221 62 11 0.0 0.0 0.00 0.00 0.00 92 1011.1
20260905032032 62 11 0.0 0.0 0.00 0.00 0.00 92 1011.1
20260905031947 62 11 0.0 0.0 0.00 0.00 0.00 92 1011.1
20260905031817 62 11 0.0 0.0 0.00 0.00 0.00 92 1011.1
20260905031717 62 11 0.0 0.0 0.00 0.00 0.00 92 1011.1
20260905031620 62 11 0.0 0.0 0.00 0.00 0.00 92 1011.1
20260905031540 62 11 0.0 0.0 0.00 0.00 0.00 92 1011.1
20260905031336 62 11 0.0 0.0 0.00 0.00 0.00 92 1011.1
20260905031241 62 11 0.0 0.0 0.00 0.00 0.00 92 1011.1
20260905031202 62 11 0.0 0.0 0.00 0.00 0.00 92 1011.1
20260905031108 62 11 0.0 0.0 0.00 0.00 0.00 92 1011.1
20260905031040 62 11 0.0 0.0 0.00 0.00 0.00 92 1011.1
20260905030910 62 11 0.0 0.0 0.00 0.00 0.00 92 1011.1
20260905030824 62 11 0.0 0.0 0.00 0.00 0.00 92 1011.1
20260905030635 63 11 0.0 0.0 0.00 0.00 0.00 92 1011.2
20260905030550 62 11 0.0 0.0 0.00 0.00 0.00 92 1011.1
20260905030419 63 11 0.0 0.0 0.00 0.00 0.00 92 1011.2
20260905030341 63 11 0.0 0.0 0.00 0.00 0.00 92 1011.2
20260905030216 63 11 0.0 0.0 0.00 0.00 0.00 92 1011.2
20260905030128 63 11 0.0 0.0 0.00 0.00 0.00 92 1011.2
20260905025939 63 11 0.0 0.0 0.00 0.00 0.00 92 1011.3
20260905025854 63 11 0.0 0.0 0.00 0.00 0.00 92 1011.2
20260905025642 63 11 0.0 0.0 0.00 0.00 0.00 92 1011.2
20260905025537 63 11 0.0 0.0 0.00 0.00 0.00 91 1011.2
20260905025500 63 11 0.0 0.0 0.00 0.00 0.00 92 1011.2
20260905025405 63 11 0.0 0.0 0.00 0.00 0.00 92 1011.3
20260905025326 63 11 0.0 0.0 0.00 0.00 0.00 92 1011.3
20260905025134 63 11 0.0 0.0 0.00 0.00 0.00 92 1011.2
20260905025036 63 11 0.0 0.0 0.00 0.00 0.00 92 1011.2
20260905024939 63 11 0.0 0.0 0.00 0.00 0.00 92 1011.2
20260905024839 63 11 0.0 0.0 0.00 0.00 0.00 92 1011.2
20260905024708 63 11 0.0 0.0 0.00 0.00 0.00 92 1011.2
20260905024624 63 11 0.0 0.0 0.00 0.00 0.00 92 1011.2
20260905024433 63 11 0.0 0.0 0.00 0.00 0.00 92 1011.3
20260905024349 63 11 0.0 0.0 0.00 0.00 0.00 92 1011.3
20260905024220 63 11 0.0 0.0 0.00 0.00 0.00 92 1011.3
20260905024143 63 11 0.0 0.0 0.00 0.00 0.00 92 1011.3
20260905024005 63 11 0.0 0.0 0.00 0.00 0.00 92 1011.4
20260905023932 63 11 0.0 0.0 0.00 0.00 0.00 92 1011.4
20260905023742 63 11 0.0 0.0 0.00 0.00 0.00 92 1011.3
20260905023637 63 11 0.0 0.0 0.00 0.00 0.00 92 1011.3
20260905023600 63 11 0.0 0.0 0.00 0.00 0.00 92 1011.3
20260905023515 63 11 0.0 0.0 0.00 0.00 0.00 92 1011.3
20260905023436 63 11 0.0 0.0 0.00 0.00 0.00 92 1011.3
20260905023255 63 11 0.0 0.0 0.00 0.00 0.00 92 1011.3
20260905023210 63 11 0.0 0.0 0.00 0.00 0.00 92 1011.3
20260905023020 63 11 0.0 0.0 0.00 0.00 0.00 92 1011.2
20260905022941 63 11 0.0 0.0 0.00 0.00 0.00 92 1011.2
20260905022813 63 11 0.0 0.0 0.00 0.00 0.00 92 1011.4
20260905022730 63 11 0.0 0.0 0.00 0.00 0.00 92 1011.4
20260905022540 63 11 0.0 0.0 0.00 0.00 0.00 91 1011.4
20260905022434 63 11 0.0 0.0 0.00 0.00 0.00 91 1011.4
20260905022357 63 11 0.0 0.0 0.00 0.00 0.00 91 1011.4
20260905022301 63 11 0.0 0.0 0.00 0.00 0.00 91 1011.4
20260905022141 63 11 0.0 0.0 0.00 0.00 0.00 91 1011.5
20260905022035 63 11 0.0 0.0 0.00 0.00 0.00 91 1011.5
20260905021958 63 11 0.0 0.0 0.00 0.00 0.00 91 1011.5
20260905021900 63 11 0.0 0.0 0.00 0.00 0.00 90 1011.6
20260905021827 63 11 0.0 0.0 0.00 0.00 0.00 90 1011.6
20260905021657 63 11 0.0 0.0 0.00 0.00 0.00 90 1011.6
20260905021611 63 11 0.0 0.0 0.00 0.00 0.00 90 1011.6
20260905021442 63 11 0.0 0.0 0.00 0.00 0.00 90 1011.6
20260905021342 63 11 0.0 0.0 0.00 0.00 0.00 90 1011.6
20260905021153 63 11 0.0 0.0 0.00 0.00 0.00 90 1011.6
20260905021055 63 11 0.0 0.0 0.00 0.00 0.00 90 1011.6
20260905021016 63 11 0.0 0.0 0.00 0.00 0.00 90 1011.6
20260905020846 63 11 0.0 0.0 0.00 0.00 0.00 90 1011.6
20260905020742 63 11 0.0 0.0 0.00 0.00 0.00 90 1011.6
20260905020702 63 11 0.0 0.0 0.00 0.00 0.00 90 1011.7
20260905020605 63 11 0.0 0.0 0.00 0.00 0.00 90 1011.7
20260905020531 64 11 0.0 0.0 0.00 0.00 0.00 90 1011.7
20260905020401 64 11 0.0 0.0 0.00 0.00 0.00 89 1011.7
20260905020317 64 11 0.0 0.0 0.00 0.00 0.00 89 1011.7
20260905020126 64 11 0.0 0.0 0.00 0.00 0.00 89 1011.7
20260905020041 64 11 0.0 0.0 0.00 0.00 0.00 89 1011.6
20260905015831 64 11 0.0 0.0 0.00 0.00 0.00 90 1011.6
20260905015746 64 11 0.0 0.0 0.00 0.00 0.00 90 1011.6
20260905015617 64 11 0.0 0.0 0.00 0.00 0.00 90 1011.5
20260905015540 64 11 0.0 0.0 0.00 0.00 0.00 90 1011.5
20260905015328 64 11 0.0 0.9 0.00 0.00 0.00 90 1011.6
20260905015249 64 11 0.0 1.7 0.00 0.00 0.00 90 1011.5
20260905015152 64 11 0.0 2.6 0.00 0.00 0.00 89 1011.6
20260905015115 64 11 0.0 2.6 0.00 0.00 0.00 89 1011.6
20260905014943 64 11 0.0 2.6 0.00 0.00 0.00 89 1011.5
20260905014840 64 11 0.0 2.6 0.00 0.00 0.00 89 1011.6
20260905014723 64 11 0.0 2.6 0.00 0.00 0.00 89 1011.6
20260905014646 64 11 0.0 2.6 0.00 0.00 0.00 89 1011.6
20260905014515 64 11 0.9 2.6 0.00 0.00 0.00 89 1011.7
20260905014432 64 11 0.9 2.6 0.00 0.00 0.00 90 1011.7
20260905014246 64 93 0.0 0.0 0.00 0.00 0.00 90 1011.7
20260905014140 64 93 0.0 0.0 0.00 0.00 0.00 90 1011.7
20260905014024 64 93 0.0 0.0 0.00 0.00 0.00 90 1011.7
20260905013945 64 93 0.0 0.0 0.00 0.00 0.00 90 1011.7
20260905013905 64 93 0.0 0.0 0.00 0.00 0.00 90 1011.7
20260905013811 64 93 0.0 0.0 0.00 0.00 0.00 90 1011.7
20260905013732 64 93 0.0 0.0 0.00 0.00 0.00 90 1011.7
20260905013545 64 93 0.0 0.0 0.00 0.00 0.00 90 1011.7
20260905013437 64 93 0.0 0.0 0.00 0.00 0.00 90 1011.7
20260905013402 64 93 0.0 0.0 0.00 0.00 0.00 90 1011.7
20260905013306 64 93 0.0 0.0 0.00 0.00 0.00 90 1011.7
20260905013228 64 93 0.0 0.0 0.00 0.00 0.00 90 1011.7
20260905013032 64 93 0.0 0.0 0.00 0.00 0.00 90 1011.7
20260905012932 64 93 0.0 0.0 0.00 0.00 0.00 89 1011.7
20260905012836 64 93 0.0 0.0 0.00 0.00 0.00 89 1011.7
20260905012737 64 93 0.0 0.0 0.00 0.00 0.00 89 1011.7
20260905012606 64 93 0.0 0.0 0.00 0.00 0.00 89 1011.6
20260905012532 64 93 0.0 0.0 0.00 0.00 0.00 89 1011.6
20260905012341 64 93 0.0 0.0 0.00 0.00 0.00 89 1011.6
20260905012240 64 93 0.0 0.0 0.00 0.00 0.00 89 1011.6
20260905012126 64 93 0.0 0.0 0.00 0.00 0.00 89 1011.6
20260905012046 64 93 0.0 0.0 0.00 0.00 0.00 89 1011.6
20260905011918 64 93 0.0 0.0 0.00 0.00 0.00 88 1011.6
20260905011833 64 93 0.0 0.0 0.00 0.00 0.00 88 1011.6
20260905011701 64 93 0.0 0.0 0.00 0.00 0.00 88 1011.5
20260905011533 64 93 0.0 0.0 0.00 0.00 0.00 88 1011.5
20260905011453 64 93 0.0 0.0 0.00 0.00 0.00 88 1011.5
20260905011415 64 93 0.0 0.0 0.00 0.00 0.00 88 1011.5
20260905011237 65 93 0.0 0.0 0.00 0.00 0.00 88 1011.5
20260905011142 64 93 0.0 0.0 0.00 0.00 0.00 88 1011.6
20260905011027 64 93 0.0 0.0 0.00 0.00 0.00 88 1011.6
20260905010948 64 93 0.0 0.0 0.00 0.00 0.00 88 1011.6
20260905010819 65 93 0.0 0.0 0.00 0.00 0.00 88 1011.6
20260905010735 65 93 0.0 0.0 0.00 0.00 0.00 88 1011.6
20260905010513 65 93 0.0 0.0 0.00 0.00 0.00 88 1011.6
20260905010435 65 93 0.0 0.0 0.00 0.00 0.00 88 1011.6
20260905010240 65 93 0.0 0.0 0.00 0.00 0.00 87 1011.6
20260905010200 65 93 0.0 0.0 0.00 0.00 0.00 87 1011.6
20260905010028 65 93 0.0 0.0 0.00 0.00 0.00 87 1011.6
20260905005858 65 93 0.0 0.0 0.00 0.00 0.00 87 1011.6
20260905005814 65 93 0.0 0.0 0.00 0.00 0.00 87 1011.6
20260905005623 65 93 0.0 0.0 0.00 0.00 0.00 87 1011.6
20260905005541 65 93 0.0 0.0 0.00 0.00 0.00 87 1011.6
20260905005409 65 93 0.0 0.0 0.00 0.00 0.00 87 1011.6
20260905005332 65 93 0.0 0.0 0.00 0.00 0.00 86 1011.6
20260905005135 65 93 0.0 0.0 0.00 0.00 0.00 86 1011.6
20260905005038 65 93 0.0 0.0 0.00 0.00 0.00 86 1011.7
20260905004941 65 93 0.0 0.0 0.00 0.00 0.00 87 1011.7
20260905004846 65 93 0.0 0.0 0.00 0.00 0.00 87 1011.7
20260905004717 65 93 0.0 0.0 0.00 0.00 0.00 86 1011.6
20260905004633 65 93 0.0 0.0 0.00 0.00 0.00 86 1011.6
20260905004504 65 93 0.0 0.0 0.00 0.00 0.00 86 1011.6
20260905004426 65 93 0.0 0.0 0.00 0.00 0.00 86 1011.6
20260905004308 65 93 0.0 0.0 0.00 0.00 0.00 86 1011.6
20260905004226 65 93 0.0 0.0 0.00 0.00 0.00 86 1011.6
20260905004028 65 93 0.0 0.0 0.00 0.00 0.00 86 1011.6
20260905003929 65 93 0.0 0.0 0.00 0.00 0.00 86 1011.6
20260905003833 65 93 0.0 0.0 0.00 0.00 0.00 86 1011.6
20260905003738 65 93 0.0 0.0 0.00 0.00 0.00 85 1011.6
20260905003659 65 93 0.0 0.0 0.00 0.00 0.00 85 1011.6
20260905003603 65 93 0.0 0.0 0.00 0.00 0.00 85 1011.5
20260905003524 65 93 0.0 0.0 0.00 0.00 0.00 85 1011.5
20260905003327 65 93 0.0 0.0 0.00 0.00 0.00 85 1011.5
20260905003228 65 93 0.0 0.0 0.00 0.00 0.00 85 1011.5
20260905003131 65 93 0.0 0.0 0.00 0.00 0.00 85 1011.4
20260905003053 65 93 0.0 0.0 0.00 0.00 0.00 85 1011.4
20260905003015 65 93 0.0 0.0 0.00 0.00 0.00 85 1011.4
20260905002823 65 93 0.0 0.0 0.00 0.00 0.00 85 1011.4
20260905002737 65 93 0.0 0.0 0.00 0.00 0.00 85 1011.4
20260905002527 65 93 0.0 0.0 0.00 0.00 0.00 85 1011.4
20260905002441 66 93 0.0 0.0 0.00 0.00 0.00 85 1011.4
20260905002229 66 93 0.0 0.0 0.00 0.00 0.00 85 1011.3
20260905002145 66 93 0.0 0.0 0.00 0.00 0.00 84 1011.3
20260905001953 66 93 0.0 0.0 0.00 0.00 0.00 84 1011.3
20260905001853 66 93 0.0 0.0 0.00 0.00 0.00 84 1011.3
20260905001737 66 93 0.0 0.0 0.00 0.00 0.00 84 1011.3
20260905001659 66 93 0.0 0.0 0.00 0.00 0.00 84 1011.3
20260905001513 66 93 0.0 0.0 0.00 0.00 0.00 84 1011.4
20260905001429 66 93 0.0 0.0 0.00 0.00 0.00 84 1011.4
20260905001259 66 93 0.0 0.0 0.00 0.00 0.00 84 1011.3
20260905001222 66 93 0.0 0.0 0.00 0.00 0.00 84 1011.3
20260905001136 66 93 0.0 0.0 0.00 0.00 0.00 84 1011.3
20260905001008 66 93 0.0 0.0 0.00 0.00 0.00 83 1011.2
20260905000908 66 93 0.0 0.0 0.00 0.00 0.00 83 1011.3
20260905000752 66 93 0.0 0.0 0.00 0.00 0.00 83 1011.2
20260905000714 66 93 0.0 0.0 0.00 0.00 0.00 83 1011.2
20260905000427 66 93 0.0 0.0 0.00 0.00 0.00 83 1011.2
20260905000328 67 93 0.0 0.0 0.00 0.00 0.00 82 1011.2
20260905000255 67 93 0.0 0.0 0.00 0.00 0.00 82 1011.2
20260905000218 67 93 0.0 0.0 0.00 0.00 0.00 82 1011.1
20260905000139 67 93 0.0 0.0 0.00 0.00 0.00 82 1011.1
20260905000008 67 93 0.0 0.0 0.00 0.00 0.00 82 1011.1
20260904235923 67 93 0.0 0.0 0.00 0.00 0.00 82 1011.1
20260904235732 67 93 0.0 0.0 0.00 0.00 0.00 82 1011.1
20260904235627 67 93 0.0 0.0 0.00 0.00 0.00 81 1011.0
20260904235548 67 93 0.0 0.0 0.00 0.00 0.00 81 1011.0
20260904235452 67 93 0.0 0.0 0.00 0.00 0.00 81 1011.0
20260904235352 67 93 0.0 0.0 0.00 0.00 0.00 81 1011.0
20260904235315 67 93 0.0 0.0 0.00 0.00 0.00 81 1011.0
20260904235202 67 93 0.0 1.7 0.00 0.00 0.00 81 1011.0
20260904235122 67 93 0.0 1.7 0.00 0.00 0.00 81 1011.0
20260904234952 67 93 0.0 1.7 0.00 0.00 0.00 81 1011.0
20260904234916 67 93 0.0 1.7 0.00 0.00 0.00 81 1011.0
20260904234726 67 93 0.0 1.7 0.00 0.00 0.00 80 1010.9
20260904234643 67 93 0.0 1.7 0.00 0.00 0.00 80 1010.9
20260904234431 67 93 0.0 1.7 0.00 0.00 0.00 80 1010.9
20260904234345 67 93 0.0 1.7 0.00 0.00 0.00 80 1010.9
20260904234216 68 36 0.0 1.7 0.00 0.00 0.00 81 1010.9
20260904234137 68 36 0.9 1.7 0.00 0.00 0.00 81 1010.9
20260904234009 68 36 0.0 1.7 0.00 0.00 0.00 80 1010.9
20260904233928 68 36 0.0 0.9 0.00 0.00 0.00 80 1010.9
20260904233759 68 36 0.9 0.9 0.00 0.00 0.00 80 1010.9
20260904233720 68 36 0.0 0.9 0.00 0.00 0.00 81 1010.9
20260904233523 68 36 0.0 0.0 0.00 0.00 0.00 81 1010.9
20260904233446 68 36 0.0 0.0 0.00 0.00 0.00 80 1010.9
20260904233350 68 36 0.0 0.0 0.00 0.00 0.00 80 1010.9
20260904233312 68 36 0.0 0.9 0.00 0.00 0.00 79 1010.9
20260904233129 68 36 0.0 0.9 0.00 0.00 0.00 79 1010.8
20260904233022 68 36 0.0 0.9 0.00 0.00 0.00 79 1010.8
20260904232852 68 36 0.0 0.9 0.00 0.00 0.00 79 1010.8
20260904232815 68 36 0.0 0.9 0.00 0.00 0.00 79 1010.8
20260904232623 68 36 0.0 1.7 0.00 0.00 0.00 79 1010.8
20260904232525 69 36 0.0 1.7 0.00 0.00 0.00 79 1010.9
20260904232429 69 36 0.0 1.7 0.00 0.00 0.00 78 1010.9
20260904232330 69 36 0.0 1.7 0.00 0.00 0.00 78 1010.9
20260904232132 69 36 0.0 1.7 0.00 0.00 0.00 79 1011.0
20260904232035 69 36 0.0 1.7 0.00 0.00 0.00 78 1011.0
20260904231950 69 36 0.0 1.7 0.00 0.00 0.00 78 1010.9
20260904231912 69 36 0.0 1.7 0.00 0.00 0.00 78 1010.9
20260904231751 69 36 0.0 1.7 0.00 0.00 0.00 78 1010.9
20260904231705 69 30 0.0 1.7 0.00 0.00 0.00 79 1010.9
20260904231540 69 355 0.0 0.0 0.00 0.00 0.00 78 1010.9
20260904231440 69 355 0.0 0.0 0.00 0.00 0.00 78 1010.9
20260904231223 69 355 0.0 0.0 0.00 0.00 0.00 77 1011.0
20260904231147 69 355 0.0 0.0 0.00 0.00 0.00 78 1011.0
20260904231031 69 355 0.0 0.9 0.00 0.00 0.00 77 1011.0
20260904230951 69 355 0.0 0.9 0.00 0.00 0.00 78 1011.0
20260904230730 70 355 0.0 0.9 0.00 0.00 0.00 76 1011.1
20260904230653 70 355 0.0 0.9 0.00 0.00 0.00 76 1011.1
20260904230557 70 355 0.0 0.9 0.00 0.00 0.00 76 1011.1
20260904230522 70 355 0.0 0.9 0.00 0.00 0.00 76 1011.1
20260904230352 70 355 0.0 1.7 0.00 0.00 0.00 75 1011.1
20260904230309 70 355 0.0 1.7 0.00 0.00 0.00 74 1011.1
20260904230047 70 355 0.0 2.6 0.00 0.00 0.00 73 1011.1
20260904225947 70 355 0.0 3.5 0.00 0.00 0.00 74 1011.0
20260904225832 70 355 0.0 3.5 0.00 0.00 0.00 73 1011.1
20260904225753 70 355 0.0 3.5 0.00 0.00 0.00 74 1011.1
20260904225625 70 355 0.9 3.5 0.00 0.00 0.00 74 1011.1
20260904225528 70 355 0.9 3.5 0.00 0.00 0.00 74 1011.1
20260904225339 70 355 0.9 3.5 0.00 0.00 0.00 74 1011.1
20260904225236 70 355 1.7 3.5 0.00 0.00 0.00 73 1011.2
20260904225159 70 355 1.7 3.5 0.00 0.00 0.00 73 1011.1
20260904225044 70 9 1.7 3.5 0.00 0.00 0.00 73 1011.1
20260904224944 70 9 1.7 3.5 0.00 0.00 0.00 73 1011.2
20260904224849 70 348 1.7 3.5 0.00 0.00 0.00 72 1011.1
20260904224810 70 61 0.9 2.6 0.00 0.00 0.00 73 1011.1
20260904224619 70 329 0.0 2.6 0.00 0.00 0.00 75 1011.2
20260904224533 70 329 0.9 2.6 0.00 0.00 0.00 73 1011.2
20260904224342 70 329 1.7 2.6 0.00 0.00 0.00 73 1011.1
20260904224236 70 329 0.9 2.6 0.00 0.00 0.00 74 1011.1
20260904224124 70 341 0.0 0.0 0.00 0.00 0.00 75 1011.1
20260904224045 70 341 0.0 0.0 0.00 0.00 0.00 73 1011.1
20260904223915 70 341 0.0 0.0 0.00 0.00 0.00 73 1011.0
20260904223831 70 341 0.0 0.0 0.00 0.00 0.00 73 1011.0
20260904223642 71 341 0.0 1.7 0.00 0.00 0.00 74 1011.0
20260904223605 71 341 0.0 1.7 0.00 0.00 0.00 74 1011.0
20260904223427 71 341 0.0 1.7 0.00 0.00 0.00 74 1011.0
20260904223351 71 341 0.0 1.7 0.00 0.00 0.00 73 1011.0
20260904223234 71 341 0.0 2.6 0.00 0.00 0.00 72 1011.0
20260904223136 71 341 0.0 4.3 0.00 0.00 0.00 73 1011.0
20260904222923 71 341 0.9 5.2 0.00 0.00 0.00 70 1010.9
20260904222824 71 341 0.9 5.2 0.00 0.00 0.00 71 1011.0
20260904222728 71 341 0.9 5.2 0.00 0.00 0.00 70 1010.9
20260904222649 71 341 0.9 5.2 0.00 0.00 0.00 70 1010.9
20260904222521 71 341 1.7 5.2 0.00 0.00 0.00 69 1010.9
20260904222435 71 341 1.7 5.2 0.00 0.00 0.00 70 1010.9
20260904222317 71 355 2.6 5.2 0.00 0.00 0.00 69 1010.9
20260904222237 71 316 2.6 5.2 0.00 0.00 0.00 70 1010.9
20260904222048 71 5 2.6 5.2 0.00 0.00 0.00 70 1011.0
20260904221926 71 336 2.6 7.8 0.00 0.00 0.00 69 1011.0
20260904221830 71 327 1.7 7.8 0.00 0.00 0.00 72 1011.0
20260904221753 71 304 1.7 7.8 0.00 0.00 0.00 70 1011.0
20260904221715 71 302 0.9 7.8 0.00 0.00 0.00 71 1011.0
20260904221620 71 342 1.7 7.8 0.00 0.00 0.00 71 1011.0
20260904221521 71 334 2.6 7.8 0.00 0.00 0.00 72 1011.0
20260904221325 71 331 3.5 7.8 0.00 0.00 0.00 70 1011.0
20260904221227 71 29 3.5 7.8 0.00 0.00 0.00 72 1011.0
20260904221123 72 339 2.6 7.0 0.00 0.00 0.00 71 1011.0
20260904221044 72 333 2.6 7.0 0.00 0.00 0.00 71 1011.0
20260904221012 72 11 2.6 7.0 0.00 0.00 0.00 72 1011.0
20260904220916 72 337 2.6 7.0 0.00 0.00 0.00 71 1011.0
20260904220837 72 318 3.5 7.0 0.00 0.00 0.00 71 1011.0
20260904220647 72 336 3.5 7.0 0.00 0.00 0.00 70 1011.0
20260904220604 72 338 3.5 7.0 0.00 0.00 0.00 71 1010.9
20260904220413 72 343 2.6 5.2 0.00 0.00 0.00 71 1010.9
20260904220315 72 338 2.6 5.2 0.00 0.00 0.00 70 1010.9
20260904220139 72 340 1.7 5.2 0.00 0.00 0.00 70 1010.9
20260904220039 72 333 2.6 5.2 0.00 0.00 0.00 69 1010.9
20260904215944 72 348 2.6 5.2 0.00 0.00 0.00 69 1010.8
20260904215906 72 30 2.6 5.2 0.00 0.00 0.00 70 1010.8
20260904215630 72 9 1.7 5.2 0.00 0.00 0.00 71 1010.8
20260904215544 72 48 2.6 5.2 0.00 0.00 0.00 70 1010.8
20260904215335 72 340 2.6 5.2 0.00 0.00 0.00 70 1010.8
20260904215230 72 342 2.6 5.2 0.00 0.00 0.00 70 1010.8
20260904215124 72 355 2.6 5.2 0.00 0.00 0.00 70 1010.8
20260904215045 72 18 2.6 5.2 0.00 0.00 0.00 70 1010.8
20260904215008 72 5 1.7 5.2 0.00 0.00 0.00 70 1010.8
20260904214912 72 348 0.9 5.2 0.00 0.00 0.00 70 1010.8
20260904214833 72 348 1.7 5.2 0.00 0.00 0.00 70 1010.8
20260904214641 72 340 3.5 5.2 0.00 0.00 0.00 70 1010.7
20260904214542 72 340 3.5 5.2 0.00 0.00 0.00 69 1010.7
20260904214446 72 44 2.6 5.2 0.00 0.00 0.00 69 1010.7
20260904214346 73 49 1.7 5.2 0.00 0.00 0.00 71 1010.7
20260904214217 73 321 0.9 4.3 0.00 0.00 0.00 71 1010.7
20260904214121 73 321 1.7 4.3 0.00 0.00 0.00 71 1010.7
20260904213951 73 349 1.7 4.3 0.00 0.00 0.00 70 1010.7
20260904213914 73 331 1.7 4.3 0.00 0.00 0.00 70 1010.7
20260904213744 73 351 2.6 4.3 0.00 0.00 0.00 70 1010.7
20260904213641 73 351 2.6 4.3 0.00 0.00 0.00 70 1010.7
20260904213529 73 355 1.7 4.3 0.00 0.00 0.00 70 1010.6
20260904213451 73 345 1.7 4.3 0.00 0.00 0.00 70 1010.7
20260904213231 73 346 1.7 4.3 0.00 0.00 0.00 69 1010.7
20260904213134 73 342 2.6 4.3 0.00 0.00 0.00 70 1010.7
20260904213049 73 336 1.7 4.3 0.00 0.00 0.00 70 1010.7
20260904213012 73 332 1.7 4.3 0.00 0.00 0.00 70 1010.7
20260904212846 73 329 0.9 2.6 0.00 0.00 0.00 70 1010.7
20260904212723 73 329 0.9 4.3 0.00 0.00 0.00 69 1010.7
20260904212628 73 327 0.9 4.3 0.00 0.00 0.00 69 1010.7
20260904212534 73 327 0.0 4.3 0.00 0.00 0.00 70 1010.7
20260904212457 73 327 0.9 4.3 0.00 0.00 0.00 70 1010.7
20260904212401 73 327 0.9 4.3 0.00 0.00 0.00 69 1010.7
20260904212322 73 327 1.7 4.3 0.00 0.00 0.00 70 1010.7
20260904212126 73 321 0.9 4.3 0.00 0.00 0.00 70 1010.7
20260904212029 73 322 0.9 4.3 0.00 0.00 0.00 70 1010.7
20260904211934 73 322 2.6 4.3 0.00 0.00 0.00 70 1010.7
20260904211833 73 312 1.7 4.3 0.00 0.00 0.00 70 1010.7
20260904211703 73 340 1.7 4.3 0.00 0.00 0.00 70 1010.7
20260904211618 73 346 2.6 4.3 0.00 0.00 0.00 69 1010.6
20260904211452 73 350 1.7 4.3 0.00 0.00 0.00 67 1010.6
20260904211415 73 355 1.7 4.3 0.00 0.00 0.00 67 1010.6
20260904211246 74 344 1.7 4.3 0.00 0.00 0.00 69 1010.7
20260904211202 74 333 0.9 4.3 0.00 0.00 0.00 69 1010.6
20260904211032 74 333 1.7 4.3 0.00 0.00 0.00 68 1010.6
20260904210934 74 338 1.7 4.3 0.00 0.00 0.00 69 1010.7
20260904210816 74 39 1.7 4.3 0.00 0.00 0.00 70 1010.6
20260904210737 74 337 1.7 5.2 0.00 0.00 0.00 68 1010.6
20260904210607 74 340 2.6 5.2 0.00 0.00 0.00 67 1010.6
20260904210501 74 319 2.6 7.8 0.00 0.00 0.00 68 1010.6
20260904210311 74 321 2.6 7.8 0.00 0.00 0.00 68 1010.7
20260904210232 74 17 3.5 7.8 0.00 0.00 0.00 68 1010.7
20260904210054 74 360 2.6 7.8 0.00 0.00 0.00 66 1010.6
20260904210020 74 44 2.6 7.8 0.00 0.00 0.00 69 1010.7
20260904205849 74 338 3.5 7.8 0.00 0.00 0.00 67 1010.7
20260904205729 74 329 3.5 7.8 0.00 0.00 0.00 66 1010.7
20260904205633 74 5 2.6 7.8 0.00 0.00 0.00 67 1010.7
20260904205556 74 10 1.7 4.3 0.00 0.00 0.00 68 1010.7
20260904205427 74 332 2.6 5.2 0.00 0.00 0.00 68 1010.8
20260904205322 74 329 2.6 5.2 0.00 0.00 0.00 67 1010.8
20260904205042 74 314 1.7 7.8 0.00 0.00 0.00 66 1010.8
20260904205007 74 9 1.7 7.8 0.00 0.00 0.00 68 1010.8
20260904204818 74 308 1.7 7.8 0.00 0.00 0.00 66 1010.7
20260904204738 74 333 2.6 7.8 0.00 0.00 0.00 65 1010.7
20260904204608 74 355 3.5 7.8 0.00 0.00 0.00 67 1010.7
20260904204526 74 331 3.5 7.8 0.00 0.00 0.00 66 1010.7
20260904204403 75 360 4.3 7.8 0.00 0.00 0.00 66 1010.8
20260904204324 75 346 4.3 7.8 0.00 0.00 0.00 66 1010.8
20260904204127 75 333 2.6 7.8 0.00 0.00 0.00 65 1010.7
20260904204050 75 315 2.6 7.8 0.00 0.00 0.00 65 1010.7
20260904203954 75 319 4.3 8.7 0.00 0.00 0.00 64 1010.7
20260904203915 75 329 4.3 8.7 0.00 0.00 0.00 64 1010.7
20260904203746 75 329 2.6 8.7 0.00 0.00 0.00 65 1010.8
20260904203640 75 293 4.3 8.7 0.00 0.00 0.00 64 1010.7
20260904203526 75 343 5.2 8.7 0.00 0.00 0.00 64 1010.7
20260904203432 75 337 4.3 8.7 0.00 0.00 0.00 64 1010.8
20260904203354 75 336 3.5 8.7 0.00 0.00 0.00 64 1010.8
20260904203259 75 342 4.3 8.7 0.00 0.00 0.00 63 1010.7
20260904203139 76 310 4.3 8.7 0.00 0.00 0.00 63 1010.8
20260904203042 76 355 2.6 8.7 0.00 0.00 0.00 64 1010.8
20260904202942 76 313 3.5 8.7 0.00 0.00 0.00 63 1010.8
20260904202725 76 327 4.3 8.7 0.00 0.00 0.00 64 1010.7
20260904202627 76 344 2.6 8.7 0.00 0.00 0.00 63 1010.7
20260904202532 76 331 2.6 8.7 0.00 0.00 0.00 65 1010.7
20260904202435 76 321 2.6 8.7 0.00 0.00 0.00 65 1010.7
20260904202307 76 340 4.3 8.7 0.00 0.00 0.00 65 1010.6
20260904202222 76 348 4.3 8.7 0.00 0.00 0.00 63 1010.6
20260904202032 76 337 3.5 9.6 0.00 0.00 0.00 64 1010.6
20260904201932 76 42 3.5 9.6 0.00 0.00 0.00 64 1010.6
20260904201737 76 303 5.2 9.6 0.00 0.00 0.00 62 1010.6
20260904201639 76 319 5.2 9.6 0.00 0.00 0.00 63 1010.5
20260904201535 76 344 5.2 9.6 0.00 0.00 0.00 64 1010.5
20260904201458 77 5 5.2 9.6 0.00 0.00 0.00 63 1010.5
20260904201324 77 338 6.1 9.6 0.00 0.00 0.00 63 1010.5
20260904201240 77 328 7.0 9.6 0.00 0.00 0.00 62 1010.6
20260904201110 77 349 5.2 10.4 0.00 0.00 0.00 64 1010.5
20260904201032 77 323 4.3 10.4 0.00 0.00 0.00 65 1010.5
20260904200837 77 343 4.3 10.4 0.00 0.00 0.00 63 1010.6
20260904200759 77 323 4.3 10.4 0.00 0.00 0.00 64 1010.5
20260904200623 76 340 6.1 10.4 0.00 0.00 0.00 64 1010.6
20260904200539 76 338 7.0 10.4 0.00 0.00 0.00 64 1010.6
20260904200349 76 328 4.3 10.4 0.00 0.00 0.00 66 1010.7
20260904200314 76 351 3.5 10.4 0.00 0.00 0.00 67 1010.6
20260904200146 76 339 3.5 10.4 0.00 0.00 0.00 66 1010.7
20260904200039 76 327 2.6 10.4 0.00 0.00 0.00 64 1010.7
20260904195909 76 333 1.7 10.4 0.00 0.00 0.00 67 1010.7
20260904195832 76 315 2.6 10.4 0.00 0.00 0.00 67 1010.7
20260904195635 76 327 5.2 10.4 0.00 0.00 0.00 65 1010.7
20260904195558 76 300 4.3 10.4 0.00 0.00 0.00 63 1010.7
20260904195443 76 311 5.2 10.4 0.00 0.00 0.00 62 1010.7
20260904195404 76 304 5.2 10.4 0.00 0.00 0.00 63 1010.7
20260904195306 76 317 4.3 8.7 0.00 0.00 0.00 63 1010.7
20260904195208 76 321 4.3 8.7 0.00 0.00 0.00 67 1010.8
20260904195133 76 347 4.3 8.7 0.00 0.00 0.00 67 1010.8
20260904195005 76 324 3.5 7.8 0.00 0.00 0.00 67 1010.8
20260904194921 76 12 3.5 10.4 0.00 0.00 0.00 65 1010.8
20260904194659 76 355 5.2 10.4 0.00 0.00 0.00 66 1010.8
20260904194622 76 333 4.3 10.4 0.00 0.00 0.00 66 1010.8
20260904194538 76 327 3.5 10.4 0.00 0.00 0.00 66 1010.8
20260904194409 76 324 2.6 10.4 0.00 0.00 0.00 64 1010.8
20260904194331 76 322 2.6 10.4 0.00 0.00 0.00 65 1010.8
20260904194201 76 267 6.1 10.4 0.00 0.00 0.00 64 1010.8
20260904194116 76 333 7.0 10.4 0.00 0.00 0.00 64 1010.8
20260904193927 76 342 6.1 9.6 0.00 0.00 0.00 66 1010.8
20260904193844 76 333 4.3 7.8 0.00 0.00 0.00 68 1010.9
20260904193657 75 344 2.6 5.2 0.00 0.00 0.00 68 1010.8
20260904193619 75 326 2.6 5.2 0.00 0.00 0.00 67 1010.8
20260904193423 75 360 2.6 5.2 0.00 0.00 0.00 68 1010.7
20260904193346 75 11 2.6 5.2 0.00 0.00 0.00 69 1010.7
20260904193231 75 350 3.5 4.3 0.00 0.00 0.00 68 1010.7
20260904193132 75 334 3.5 7.8 0.00 0.00 0.00 67 1010.8
20260904192935 75 355 1.7 7.8 0.00 0.00 0.00 68 1010.8
20260904192859 75 355 1.7 7.8 0.00 0.00 0.00 68 1010.7
20260904192742 75 355 3.5 7.8 0.00 0.00 0.00 67 1010.8
20260904192645 75 355 3.5 7.8 0.00 0.00 0.00 68 1010.8
20260904192516 75 339 3.5 7.8 0.00 0.00 0.00 68 1010.8
20260904192432 75 325 4.3 7.8 0.00 0.00 0.00 67 1010.8
20260904192242 75 320 4.3 7.0 0.00 0.00 0.00 66 1010.8
20260904192157 75 13 3.5 7.0 0.00 0.00 0.00 66 1010.8
20260904192027 75 332 1.7 4.3 0.00 0.00 0.00 67 1010.8
20260904191928 75 334 1.7 4.3 0.00 0.00 0.00 66 1010.8
20260904191733 75 327 2.6 4.3 0.00 0.00 0.00 64 1010.8
20260904191634 75 311 2.6 4.3 0.00 0.00 0.00 65 1010.8
20260904191530 75 342 3.5 4.3 0.00 0.00 0.00 66 1010.8
20260904191457 75 320 2.6 4.3 0.00 0.00 0.00 67 1010.9
20260904191343 75 326 2.6 4.3 0.00 0.00 0.00 65 1010.9
20260904191315 75 348 1.7 4.3 0.00 0.00 0.00 67 1010.8
20260904191146 75 337 2.6 4.3 0.00 0.00 0.00 67 1010.9
20260904191102 75 329 2.6 4.3 0.00 0.00 0.00 65 1010.9
20260904190933 75 335 0.9 4.3 0.00 0.00 0.00 66 1010.9
20260904190832 75 309 0.9 4.3 0.00 0.00 0.00 65 1010.9
20260904190635 75 280 1.7 7.0 0.00 0.00 0.00 67 1010.8
20260904190558 75 328 0.9 7.0 0.00 0.00 0.00 67 1010.8
20260904190504 75 317 0.9 7.0 0.00 0.00 0.00 66 1010.8
20260904190345 75 317 1.7 7.0 0.00 0.00 0.00 65 1010.9
20260904190218 75 325 3.5 7.0 0.00 0.00 0.00 65 1010.9
20260904190120 75 321 3.5 7.0 0.00 0.00 0.00 64 1010.9
20260904190002 75 337 3.5 7.0 0.00 0.00 0.00 63 1010.8
20260904185843 75 331 3.5 8.7 0.00 0.00 0.00 63 1010.9
20260904185757 75 332 2.6 8.7 0.00 0.00 0.00 67 1010.8
20260904185720 75 333 2.6 8.7 0.00 0.00 0.00 66 1010.8
20260904185524 75 336 3.5 8.7 0.00 0.00 0.00 63 1010.8
20260904185427 75 327 3.5 8.7 0.00 0.00 0.00 63 1010.9
20260904185331 75 335 3.5 8.7 0.00 0.00 0.00 65 1010.9
20260904185238 75 345 3.5 8.7 0.00 0.00 0.00 64 1011.0
20260904185200 75 344 5.2 8.7 0.00 0.00 0.00 62 1011.0
20260904185105 75 331 5.2 8.7 0.00 0.00 0.00 65 1011.0
20260904185027 75 340 5.2 8.7 0.00 0.00 0.00 64 1011.0
20260904184830 75 13 3.5 7.0 0.00 0.00 0.00 66 1011.1
20260904184733 75 320 4.3 7.0 0.00 0.00 0.00 64 1011.1
20260904184637 75 337 3.5 7.0 0.00 0.00 0.00 63 1011.1
20260904184558 75 317 3.5 7.0 0.00 0.00 0.00 65 1011.1
20260904184522 75 330 2.6 5.2 0.00 0.00 0.00 63 1011.1
20260904184435 75 319 2.6 5.2 0.00 0.00 0.00 65 1011.1
20260904184305 75 307 2.6 5.2 0.00 0.00 0.00 67 1011.0
20260904184231 75 329 1.7 5.2 0.00 0.00 0.00 66 1011.0
20260904184034 75 296 0.9 5.2 0.00 0.00 0.00 66 1011.0
20260904183938 75 296 1.7 5.2 0.00 0.00 0.00 65 1011.0
20260904183841 75 311 2.6 5.2 0.00 0.00 0.00 64 1010.9
20260904183805 76 330 3.5 5.2 0.00 0.00 0.00 62 1011.0
20260904183706 76 327 2.6 5.2 0.00 0.00 0.00 62 1010.9
20260904183611 76 306 1.7 5.2 0.00 0.00 0.00 64 1010.9
20260904183532 76 306 2.6 5.2 0.00 0.00 0.00 64 1010.9
20260904183402 76 320 3.5 7.8 0.00 0.00 0.00 65 1011.0
20260904183236 76 340 1.7 7.8 0.00 0.00 0.00 67 1010.9
20260904183125 76 306 2.6 7.8 0.00 0.00 0.00 66 1010.9
20260904183046 76 330 3.5 7.8 0.00 0.00 0.00 65 1010.9
20260904182834 76 351 4.3 7.8 0.00 0.00 0.00 65 1011.0
20260904182728 76 337 3.5 7.8 0.00 0.00 0.00 64 1011.0
20260904182630 76 13 4.3 7.8 0.00 0.00 0.00 63 1010.9
20260904182554 76 348 4.3 7.8 0.00 0.00 0.00 63 1010.9
20260904182453 76 355 3.5 7.0 0.00 0.00 0.00 63 1010.9
20260904182325 76 325 3.5 7.8 0.00 0.00 0.00 63 1010.9
20260904182217 76 342 2.6 8.7 0.00 0.00 0.00 64 1010.9
20260904182033 76 360 2.6 8.7 0.00 0.00 0.00 63 1010.9
20260904181947 76 36 2.6 8.7 0.00 0.00 0.00 62 1010.9
20260904181735 76 13 2.6 8.7 0.00 0.00 0.00 61 1010.9
20260904181628 76 344 4.3 8.7 0.00 0.00 0.00 60 1011.0
20260904181549 76 302 4.3 8.7 0.00 0.00 0.00 60 1011.0
20260904181504 77 310 4.3 8.7 0.00 0.00 0.00 63 1011.0
20260904181425 77 331 4.3 8.7 0.00 0.00 0.00 65 1011.0
20260904181257 76 334 4.3 7.0 0.00 0.00 0.00 64 1011.0
20260904181212 76 343 4.3 7.0 0.00 0.00 0.00 64 1010.9
20260904181020 76 360 2.6 7.8 0.00 0.00 0.00 69 1010.8
20260904180941 76 348 1.7 7.8 0.00 0.00 0.00 68 1010.9
20260904180755 75 316 1.7 7.8 0.00 0.00 0.00 68 1010.9
20260904180649 75 331 2.6 7.8 0.00 0.00 0.00 64 1010.9
20260904180519 75 360 2.6 8.7 0.00 0.00 0.00 65 1010.9
20260904180421 75 5 2.6 8.7 0.00 0.00 0.00 65 1010.9
20260904180336 75 333 3.5 8.7 0.00 0.00 0.00 64 1010.9
20260904180207 76 293 5.2 10.4 0.00 0.00 0.00 63 1011.0
20260904180129 76 319 5.2 10.4 0.00 0.00 0.00 63 1011.0
20260904175933 76 355 5.2 10.4 0.00 0.00 0.00 63 1010.9
20260904175855 76 329 6.1 10.4 0.00 0.00 0.00 61 1010.9
20260904175738 76 309 5.2 10.4 0.00 0.00 0.00 62 1010.9
20260904175700 77 355 5.2 10.4 0.00 0.00 0.00 62 1010.9
20260904175627 77 321 6.1 10.4 0.00 0.00 0.00 62 1010.9
20260904175511 77 346 6.1 10.4 0.00 0.00 0.00 65 1011.0
20260904175433 77 355 6.1 10.4 0.00 0.00 0.00 65 1011.0
20260904175306 77 340 4.3 9.6 0.00 0.00 0.00 65 1011.0
20260904175219 77 348 4.3 9.6 0.00 0.00 0.00 62 1010.9
20260904175031 77 319 3.5 7.0 0.00 0.00 0.00 64 1010.9
20260904174946 77 360 4.3 7.0 0.00 0.00 0.00 66 1010.9
20260904174817 77 339 3.5 7.0 0.00 0.00 0.00 63 1011.0
20260904174738 77 319 2.6 7.0 0.00 0.00 0.00 63 1011.0
20260904174602 77 305 3.5 4.3 0.00 0.00 0.00 66 1011.1
20260904174524 77 355 3.5 4.3 0.00 0.00 0.00 67 1011.1
20260904174340 76 360 3.5 4.3 0.00 0.00 0.00 67 1011.1
20260904174253 76 340 2.6 4.3 0.00 0.00 0.00 68 1011.1
20260904174154 76 5 2.6 4.3 0.00 0.00 0.00 66 1011.2
20260904174116 76 348 2.6 4.3 0.00 0.00 0.00 67 1011.2
20260904173940 76 337 1.7 4.3 0.00 0.00 0.00 66 1011.3
20260904173841 76 340 0.9 4.3 0.00 0.00 0.00 65 1011.3
20260904173745 76 351 0.9 5.2 0.00 0.00 0.00 65 1011.3
20260904173706 76 351 1.7 5.2 0.00 0.00 0.00 65 1011.3
20260904173516 76 348 1.7 5.2 0.00 0.00 0.00 65 1011.3
20260904173432 76 334 2.6 5.2 0.00 0.00 0.00 63 1011.3
20260904173226 76 15 2.6 5.2 0.00 0.00 0.00 64 1011.3
20260904173140 76 5 2.6 5.2 0.00 0.00 0.00 63 1011.3
20260904173011 76 318 3.5 5.2 0.00 0.00 0.00 66 1011.3
20260904172932 76 318 3.5 5.2 0.00 0.00 0.00 65 1011.3
20260904172738 76 5 2.6 5.2 0.00 0.00 0.00 64 1011.2
20260904172700 76 17 1.7 5.2 0.00 0.00 0.00 64 1011.2
20260904172605 76 19 0.9 6.1 0.00 0.00 0.00 65 1011.1
20260904172526 76 320 0.9 4.3 0.00 0.00 0.00 65 1011.1
20260904172331 76 320 2.6 5.2 0.00 0.00 0.00 65 1011.1
20260904172234 76 324 2.6 5.2 0.00 0.00 0.00 65 1011.1
20260904172123 76 312 2.6 5.2 0.00 0.00 0.00 63 1011.1
20260904172045 76 311 2.6 7.0 0.00 0.00 0.00 63 1011.1
20260904172008 76 331 2.6 7.0 0.00 0.00 0.00 67 1011.1
20260904171912 76 325 1.7 7.0 0.00 0.00 0.00 67 1011.1
20260904171834 76 331 2.6 7.0 0.00 0.00 0.00 67 1011.1
20260904171704 75 319 3.5 7.0 0.00 0.00 0.00 67 1011.1
20260904171619 75 318 4.3 7.0 0.00 0.00 0.00 66 1011.1
20260904171430 75 330 3.5 7.0 0.00 0.00 0.00 67 1011.1
20260904171325 75 322 3.5 7.0 0.00 0.00 0.00 66 1011.1
20260904171249 75 327 3.5 7.0 0.00 0.00 0.00 64 1011.1
20260904171216 75 319 3.5 7.8 0.00 0.00 0.00 66 1011.1
20260904171130 75 331 3.5 7.8 0.00 0.00 0.00 66 1011.1
20260904170942 75 15 4.3 7.8 0.00 0.00 0.00 67 1011.1
20260904170856 75 336 3.5 7.8 0.00 0.00 0.00 66 1011.1
20260904170706 75 25 2.6 7.8 0.00 0.00 0.00 66 1011.1
20260904170628 75 30 3.5 7.8 0.00 0.00 0.00 66 1011.1
20260904170432 75 338 4.3 7.8 0.00 0.00 0.00 66 1011.2
20260904170355 75 335 4.3 7.8 0.00 0.00 0.00 67 1011.2
20260904170258 75 336 3.5 5.2 0.00 0.00 0.00 67 1011.2
20260904170222 75 355 1.7 7.0 0.00 0.00 0.00 67 1011.2
20260904170142 75 355 1.7 7.8 0.00 0.00 0.00 68 1011.2
20260904170017 75 355 3.5 7.8 0.00 0.00 0.00 67 1011.2
20260904165933 75 346 3.5 7.8 0.00 0.00 0.00 68 1011.2
20260904165743 75 355 2.6 8.7 0.00 0.00 0.00 67 1011.2
20260904165641 75 329 3.5 8.7 0.00 0.00 0.00 66 1011.2
20260904165526 75 343 4.3 8.7 0.00 0.00 0.00 68 1011.3
20260904165449 75 342 4.3 8.7 0.00 0.00 0.00 65 1011.3
20260904165422 75 355 4.3 8.7 0.00 0.00 0.00 67 1011.3
20260904165306 75 328 3.5 8.7 0.00 0.00 0.00 65 1011.2
20260904165227 75 15 3.5 8.7 0.00 0.00 0.00 66 1011.2
20260904165043 74 28 5.2 8.7 0.00 0.00 0.00 66 1011.3
20260904164937 74 360 4.3 8.7 0.00 0.00 0.00 65 1011.3
20260904164822 74 348 3.5 9.6 0.00 0.00 0.00 66 1011.3
20260904164743 75 342 4.3 9.6 0.00 0.00 0.00 66 1011.3
20260904164705 75 335 4.3 9.6 0.00 0.00 0.00 66 1011.3
20260904164611 75 327 4.3 9.6 0.00 0.00 0.00 66 1011.4
20260904164532 75 338 4.3 9.6 0.00 0.00 0.00 67 1011.4
20260904164404 75 309 5.2 9.6 0.00 0.00 0.00 66 1011.4
20260904164318 75 321 6.1 9.6 0.00 0.00 0.00 66 1011.4
20260904164130 75 5 6.1 9.6 0.00 0.00 0.00 65 1011.4
20260904164049 75 360 7.0 9.6 0.00 0.00 0.00 65 1011.4
20260904163840 75 338 4.3 8.7 0.00 0.00 0.00 67 1011.4
20260904163723 75 268 3.5 7.8 0.00 0.00 0.00 65 1011.4
20260904163645 75 355 3.5 7.8 0.00 0.00 0.00 65 1011.4
20260904163608 75 5 2.6 8.7 0.00 0.00 0.00 65 1011.4
20260904163512 75 340 2.6 8.7 0.00 0.00 0.00 64 1011.4
20260904163434 75 22 2.6 8.7 0.00 0.00 0.00 63 1011.4
20260904163305 76 355 3.5 8.7 0.00 0.00 0.00 64 1011.4
20260904163220 76 20 3.5 8.7 0.00 0.00 0.00 63 1011.4
20260904163050 76 311 4.3 8.7 0.00 0.00 0.00 63 1011.4
20260904162950 76 333 4.3 8.7 0.00 0.00 0.00 60 1011.4
20260904162837 77 302 5.2 8.7 0.00 0.00 0.00 62 1011.5
20260904162740 77 327 5.2 8.7 0.00 0.00 0.00 64 1011.4
20260904162701 77 355 3.5 7.8 0.00 0.00 0.00 64 1011.4
20260904162607 77 337 2.6 5.2 0.00 0.00 0.00 65 1011.4
20260904162527 77 355 2.6 5.2 0.00 0.00 0.00 63 1011.4
20260904162359 77 336 3.5 9.6 0.00 0.00 0.00 65 1011.3
20260904162314 77 334 3.5 9.6 0.00 0.00 0.00 63 1011.3
20260904162145 77 29 2.6 9.6 0.00 0.00 0.00 63 1011.2
20260904162107 77 75 1.7 9.6 0.00 0.00 0.00 64 1011.2
20260904161930 77 355 1.7 9.6 0.00 0.00 0.00 61 1011.3
20260904161852 77 11 2.6 9.6 0.00 0.00 0.00 61 1011.4
20260904161701 77 324 5.2 9.6 0.00 0.00 0.00 61 1011.4
20260904161627 77 342 4.3 9.6 0.00 0.00 0.00 65 1011.4
20260904161431 77 327 3.5 9.6 0.00 0.00 0.00 67 1011.4
20260904161354 77 340 3.5 9.6 0.00 0.00 0.00 68 1011.4
20260904161258 77 44 3.5 11.3 0.00 0.00 0.00 64 1011.4
20260904161139 77 60 3.5 11.3 0.00 0.00 0.00 63 1011.5
20260904161043 77 22 3.5 11.3 0.00 0.00 0.00 64 1011.5
20260904161006 77 24 4.3 11.3 0.00 0.00 0.00 64 1011.5
20260904160928 77 9 5.2 11.3 0.00 0.00 0.00 64 1011.5
20260904160758 77 13 5.2 11.3 0.00 0.00 0.00 64 1011.5
20260904160720 77 35 5.2 11.3 0.00 0.00 0.00 64 1011.6
20260904160536 77 11 6.1 11.3 0.00 0.00 0.00 65 1011.6
20260904160451 77 5 4.3 11.3 0.00 0.00 0.00 62 1011.7
20260904160320 76 11 3.5 7.8 0.00 0.00 0.00 63 1011.8
20260904160240 76 355 3.5 7.8 0.00 0.00 0.00 65 1011.8
20260904160042 76 339 4.3 7.8 0.00 0.00 0.00 68 1011.8
20260904160005 76 342 4.3 7.8 0.00 0.00 0.00 68 1011.8
20260904155909 76 342 3.5 7.8 0.00 0.00 0.00 68 1011.9
20260904155831 76 347 3.5 7.8 0.00 0.00 0.00 67 1011.9
20260904155616 75 344 3.5 7.0 0.00 0.00 0.00 68 1011.9
20260904155525 75 344 3.5 8.7 0.00 0.00 0.00 67 1011.9
20260904155428 75 332 4.3 8.7 0.00 0.00 0.00 66 1011.9
20260904155342 75 355 2.6 8.7 0.00 0.00 0.00 65 1011.9
20260904155133 75 31 3.5 8.7 0.00 0.00 0.00 68 1011.8
20260904155048 75 15 2.6 8.7 0.00 0.00 0.00 67 1011.8
20260904154920 75 329 3.5 9.6 0.00 0.00 0.00 67 1011.9
20260904154842 75 309 4.3 9.6 0.00 0.00 0.00 68 1011.9